﻿ProjectID	SampleID	SampleType	TaxonomyID	UniqCodeType	UniqCode	SampleName	ScientificName	CommonName	CollectionYear	CollectionMonth	CollectionDay	SamplingTimeStartEnd	SamplingTimeAMPM	SamplingDuration	WeatherStartEnd	CollectionRegion	CollectionCountry	CollectionArea	CollectionLatitudeFrom	CollectionLatitudeTo	CollectionLongitudeFrom	CollectionLongitudeTo	Sex	TissueOrgan	TissueLipid	TissueMoist	Weight	WeightUnit	Length	LengthUnit	LengthType	GrowthStage	Age	Disease	TemperatureStartEnd	WaterTemperatureStartEnd	pH	DO	EC	EC_temp	Salinity	SS	WaterDepthM	TransparencyM	WaterColor	SedimentTemperatureStartEnd	SedimentDepthM	SedimentAppearance	SedimentColor	SedimentSurfaceColor	SedimentOdor	SedimentImpurities	SedimentMoistureOnSiteAnalysis	IgnitionLossOnSiteAnalysis	SoilDepthM	FlowRate	MeanPM10	MeanTotalSuspendedParticles	HumidityStartEnd	WindDirectionStartEnd	WindSpeedMSStartEnd	AmountOfCollectedAirStartEnd	Remarks	RegisterDate	UpdateDate
PRA000008	SAA000324	ST003	34880	es-BANK	ET00656	E-2	"Nyctereutes procyonoides"	"Raccoon dog"	2000	12	26					Asia	Japan	Ehime	33.88141111	34.01356111	133.39135	133.6865194	Male	Liver	3.39																																							2016/10/5	2016/10/11
PRA000008	SAA000325	ST003	34880	es-BANK	"ET00659 "	E-5	"Nyctereutes procyonoides"	"Raccoon dog"	2001	2	21					Asia	Japan	Ehime	33.83600556	33.86477222	133.3492389	133.4008778	Male	Liver	3.45																																							2016/10/5	2016/10/11
PRA000008	SAA000326	ST003	34880	es-BANK	ET00661	E-7	"Nyctereutes procyonoides"	"Raccoon dog"	2001	3	10					Asia	Japan	Ehime	33.75333333	33.98555833	132.9744417	133.2908333	Female	Liver	4.26																																							2016/10/5	2016/10/11
PRA000008	SAA000327	ST003	34880	es-BANK	ET00666	E-12	"Nyctereutes procyonoides"	"Raccoon dog"	2001	3	16					Asia	Japan	Ehime	33.75333333	33.98555833	132.9744417	133.2908333	Male	Liver	4.98																																							2016/10/5	2016/10/11
PRA000008	SAA000328	ST003	34880	es-BANK	"ET00667 "	E-13	"Nyctereutes procyonoides"	"Raccoon dog"	2001	3	16					Asia	Japan	Ehime	33.75333333	33.98555833	132.9744417	133.2908333	Female	Liver	4.22																																							2016/10/5	2016/10/11
PRA000008	SAA000329	ST003	34880	es-BANK	"ET00668 "	E-14	"Nyctereutes procyonoides"	"Raccoon dog"	2001	3	16					Asia	Japan	Ehime	33.83600556	33.86477222	133.3492389	133.4008778	Female	Liver	3.64																																							2016/10/5	2016/10/11
PRA000008	SAA000330	ST003	34880	es-BANK	"ET00669 "	E-15	"Nyctereutes procyonoides"	"Raccoon dog"	2000	12	2					Asia	Japan	Ehime	33.82055556	33.85694444	132.8847222	132.9741667	Female	Liver	3.39		2.7	kg																																				2016/10/5	2016/10/11
PRA000008	SAA000331	ST003	34880	es-BANK	"ET00670 "	E-16	"Nyctereutes procyonoides"	"Raccoon dog"	2001	2	25					Asia	Japan	Ehime	33.68444167	33.75722222	132.9105556	133.2069444	Male	Liver	3.58		2.1	kg																																				2016/10/5	2016/10/11
PRA000008	SAA000332	ST003	34880	es-BANK	"ET00671 "	E-17	"Nyctereutes procyonoides"	"Raccoon dog"	2001	2	26					Asia	Japan	Ehime	33.83600556	33.86477222	133.3492389	133.4008778	Male	Liver	3.56																																							2016/10/5	2016/10/11
PRA000008	SAA000333	ST003	34880	es-BANK	ET00673	E-19	"Nyctereutes procyonoides"	"Raccoon dog"	2001	2	27					Asia	Japan	Ehime	33.75333333	33.98555833	132.9744417	133.2908333	Female	Liver	4.65																																							2016/10/5	2016/10/11
PRA000008	SAA000334	ST003	34880	es-BANK	"ET00674 "	E-20	"Nyctereutes procyonoides"	"Raccoon dog"	2001	3	17					Asia	Japan	Ehime	33.75333333	33.98555833	132.9744417	133.2908333	Male	Liver	2.56																																							2016/10/5	2016/10/11
PRA000008	SAA000335	ST003	34880	es-BANK	ET00675	E-21	"Nyctereutes procyonoides"	"Raccoon dog"	2001	3	18					Asia	Japan	Ehime	33.75333333	33.98555833	132.9744417	133.2908333	Male	Liver	3.65																																							2016/10/5	2016/10/11
PRA000008	SAA000336	ST003	34880	es-BANK	ET00678	E-24	"Nyctereutes procyonoides"	"Raccoon dog"	2001	1	18					Asia	Japan	Ehime	33.33055556	33.42916667	132.4830556	132.6438889	Female	Liver	4.08																																							2016/10/5	2016/10/11
PRA000008	SAA000337	ST003	34880	es-BANK	ET00679	E-25	"Nyctereutes procyonoides"	"Raccoon dog"	2002	2	7					Asia	Japan	Ehime	33.68444167	33.75722222	132.9105556	133.2069444	Female	Liver	3.66																																							2016/10/5	2016/10/11
PRA000008	SAA000338	ST003	34880	es-BANK	ET00680	E-26	"Nyctereutes procyonoides"	"Raccoon dog"	2002	2						Asia	Japan	Ehime	33.68444167	33.75722222	132.9105556	133.2069444	Male	Liver	5																																							2016/10/5	2016/10/11
PRA000008	SAA000339	ST003	34880	es-BANK	ET00681	E-27	"Nyctereutes procyonoides"	"Raccoon dog"	2002	3	12					Asia	Japan	Ehime	33.59805556	33.70472222	132.8675	133.0338889	Male	Liver	5.06																																							2016/10/5	2016/10/11
PRA000008	SAA000340	ST003	34880	es-BANK	ET00682	E-28	"Nyctereutes procyonoides"	"Raccoon dog"	2002	3	14					Asia	Japan	Ehime	33.83600556	33.86477222	133.3492389	133.4008778	Male	Liver	3.55																																							2016/10/5	2016/10/11
PRA000008	SAA000341	ST003	34880	es-BANK	ET00683	E-29	"Nyctereutes procyonoides"	"Raccoon dog"	2002	4	25					Asia	Japan	Ehime	33.84333333	33.94944444	133.2388889	133.3538889	Male	Liver	4.18																																							2016/10/5	2016/10/11
PRA000008	SAA000342	ST003	34880	es-BANK	ET00685	E-31	"Nyctereutes procyonoides"	"Raccoon dog"	2001	12	23					Asia	Japan	Ehime	33.05083333	33.33611111	132.2252778	132.6852778	Female	Liver	4.06		3.65	kg																																				2016/10/5	2016/10/11
PRA000008	SAA000343	ST003	34880	es-BANK	"ET00686 "	E-32	"Nyctereutes procyonoides"	"Raccoon dog"	2003	11	7					Asia	Japan	Ehime	33.75333333	33.98555833	132.9744417	133.2908333	Male	Liver	4.19																																							2016/10/5	2016/10/11
PRA000008	SAA000344	ST003	34880	es-BANK	"ET00687 "	E-33	"Nyctereutes procyonoides"	"Raccoon dog"	2003	11	7					Asia	Japan	Ehime	33.75333333	33.98555833	132.9744417	133.2908333	Female	Liver	4.02																																							2016/10/5	2016/10/11
PRA000008	SAA000345	ST003	34880	es-BANK	ET00489	O-1	"Nyctereutes procyonoides"	"Raccoon dog"	2004	10	8					Asia	Japan	Osaka	34.305	34.97166667	135.135	135.7883333	Male	Liver	5.75		3	kg																																				2016/10/5	2016/10/11
PRA000008	SAA000346	ST003	34880	es-BANK	"ET00501 "	O-2	"Nyctereutes procyonoides"	"Raccoon dog"	2004	10	13					Asia	Japan	Osaka	34.305	34.97166667	135.135	135.7883333	Male	Liver	3.11		3.5	kg																																				2016/10/5	2016/10/11
PRA000008	SAA000347	ST003	34880	es-BANK	"ET00502 "	O-3	"Nyctereutes procyonoides"	"Raccoon dog"	2004	10	13					Asia	Japan	Osaka	34.305	34.97166667	135.135	135.7883333	Female	Liver	2.8		2.8	kg																																				2016/10/5	2016/10/11
PRA000008	SAA000348	ST003	34880	es-BANK	ET00503	O-4	"Nyctereutes procyonoides"	"Raccoon dog"	2004							Asia	Japan	Osaka	34.305	34.97166667	135.135	135.7883333	Male	Liver	3.17		3.6	kg																																				2016/10/5	2016/10/11
PRA000008	SAA000349	ST003	34880	es-BANK	ET00504	O-5	"Nyctereutes procyonoides"	"Raccoon dog"	2004							Asia	Japan	Osaka	34.305	34.97166667	135.135	135.7883333	Male	Liver	3.93		4.5	kg				Matured																																2016/10/5	2016/10/11
PRA000008	SAA000350	ST003	34880	es-BANK	"ET00723 "	O-6	"Nyctereutes procyonoides"	"Raccoon dog"	2005							Asia	Japan	Osaka	34.305	34.97166667	135.135	135.7883333	Female	Liver	5.51		4.98	kg				Matured																																2016/10/5	2016/10/11
PRA000008	SAA000351	ST003	34880	es-BANK	ET00728	O-9	"Nyctereutes procyonoides"	"Raccoon dog"	2005							Asia	Japan	Osaka	34.305	34.97166667	135.135	135.7883333	Male	Liver	3.11		2.5	kg				Matured																																2016/10/5	2016/10/11
PRA000008	SAA000352	ST003	34880	es-BANK	ET00703	O-11	"Nyctereutes procyonoides"	"Raccoon dog"	2005							Asia	Japan	Osaka	34.305	34.97166667	135.135	135.7883333	Female	Liver	3.25		4.34	kg				Matured																																2016/10/5	2016/10/11
PRA000008	SAA000353	ST003	34880	es-BANK	ET00442		"Nyctereutes procyonoides"	"Raccoon dog"	2001	1	18					Asia	Japan	Kanagawa	35.31583333	35.53805833	139.1144417	139.6652778	Male	Liver	3.44																																							2016/10/5	2016/10/11
PRA000008	SAA000354	ST003	34880	es-BANK	ET00443		"Nyctereutes procyonoides"	"Raccoon dog"	2001	1	24					Asia	Japan	Kanagawa	35.31583333	35.53805833	139.1144417	139.6652778	Male	Liver	4.01																																							2016/10/5	2016/10/11
PRA000008	SAA000355	ST003	34880	es-BANK	ET00765		"Nyctereutes procyonoides"	"Raccoon dog"	2001	2	6					Asia	Japan	Kanagawa	35.31583333	35.53805833	139.1144417	139.6652778	Female	Liver	3.68																																							2016/10/5	2016/10/11
PRA000008	SAA000356	ST003	34880	es-BANK	ET00444		"Nyctereutes procyonoides"	"Raccoon dog"	2001	2	7					Asia	Japan	Kanagawa	35.31583333	35.53805833	139.1144417	139.6652778	Female	Liver	5.45																																							2016/10/5	2016/10/11
PRA000008	SAA000357	ST003	34880	es-BANK	ET00446		"Nyctereutes procyonoides"	"Raccoon dog"	2001	3	21					Asia	Japan	Kanagawa	35.31583333	35.53805833	139.1144417	139.6652778	Male	Liver	3.32																																							2016/10/5	2016/10/11
PRA000008	SAA000358	ST003	34880	es-BANK	ET00448		"Nyctereutes procyonoides"	"Raccoon dog"	2001	4	10					Asia	Japan	Kanagawa	35.31583333	35.53805833	139.1144417	139.6652778	Male	Liver	3.19																																							2016/10/5	2016/10/11
PRA000008	SAA000359	ST003	34880	es-BANK	ET00451		"Nyctereutes procyonoides"	"Raccoon dog"	2001	8	22					Asia	Japan	Kanagawa	35.31583333	35.53805833	139.1144417	139.6652778	Female	Liver	3.66																																							2016/10/5	2016/10/11
PRA000008	SAA000360	ST003	34880	es-BANK	ET00454		"Nyctereutes procyonoides"	"Raccoon dog"	2001	9	19					Asia	Japan	Kanagawa	35.31583333	35.53805833	139.1144417	139.6652778	Male	Liver	4.36																																							2016/10/5	2016/10/11
PRA000008	SAA000361	ST003	34880	es-BANK	ET00455		"Nyctereutes procyonoides"	"Raccoon dog"	2001	10	29					Asia	Japan	Kanagawa	35.31583333	35.53805833	139.1144417	139.6652778	Female	Liver	3.23																																							2016/10/5	2016/10/11
PRA000008	SAA000362	ST003	34880	es-BANK	ET00458		"Nyctereutes procyonoides"	"Raccoon dog"	2001	11	15					Asia	Japan	Kanagawa	35.31583333	35.53805833	139.1144417	139.6652778	Female	Liver	3.49																																							2016/10/5	2016/10/11
PRA000008	SAA000363	ST003	34880	es-BANK	ET00489	O-1	"Nyctereutes procyonoides"	"Raccoon dog"	2004	10	8					Asia	Japan	Osaka	34.305	34.97166667	135.135	135.7883333	Male	Adipose	57.68		3	kg																																				2016/10/5	2016/10/11
PRA000008	SAA000364	ST003	34880	es-BANK	"ET00501 "	O-2	"Nyctereutes procyonoides"	"Raccoon dog"	2004	10	13					Asia	Japan	Osaka	34.305	34.97166667	135.135	135.7883333	Male	Adipose	67.68		3.5	kg																																				2016/10/5	2016/10/11
PRA000008	SAA000365	ST003	34880	es-BANK	"ET00502 "	O-3	"Nyctereutes procyonoides"	"Raccoon dog"	2004	10	13					Asia	Japan	Osaka	34.305	34.97166667	135.135	135.7883333	Female	Adipose	75.87		2.8	kg																																				2016/10/5	2016/10/11
PRA000008	SAA000366	ST003	34880	es-BANK	ET00503	O-4	"Nyctereutes procyonoides"	"Raccoon dog"	2004							Asia	Japan	Osaka	34.305	34.97166667	135.135	135.7883333	Male	Adipose	75.1		3.6	kg																																				2016/10/5	2016/10/11
PRA000008	SAA000367	ST003	34880	es-BANK	ET00504	O-5	"Nyctereutes procyonoides"	"Raccoon dog"	2004							Asia	Japan	Osaka	34.305	34.97166667	135.135	135.7883333	Male	Adipose	79.41		4.5	kg				Matured																																2016/10/5	2016/10/11
PRA000008	SAA000368	ST003	34880	es-BANK	"ET00723 "	O-6	"Nyctereutes procyonoides"	"Raccoon dog"	2005							Asia	Japan	Osaka	34.305	34.97166667	135.135	135.7883333	Female	Adipose	88.03		4.98	kg				Matured																																2016/10/5	2016/10/11
PRA000008	SAA000369	ST003	34880	es-BANK	ET00728	O-9	"Nyctereutes procyonoides"	"Raccoon dog"	2005							Asia	Japan	Osaka	34.305	34.97166667	135.135	135.7883333	Male	Adipose	75.79		2.5	kg				Matured																																2016/10/5	2016/10/11
PRA000008	SAA000370	ST003	34880	es-BANK	ET00703	O-11	"Nyctereutes procyonoides"	"Raccoon dog"	2005							Asia	Japan	Osaka	34.305	34.97166667	135.135	135.7883333	Female	Adipose	82.14		4.34	kg				Matured																																2016/10/5	2016/10/11
PRA000009	SAA000371	ST005	54021	es-BANK	EB02698	BfA-794	"Phoebastria nigripes"	"Black-footed albatross (BfA) "	1998	2	22					"Pacific Ocean"			24.81666667	24.81666667	171.0666667	171.0666667	Male	"Pectoral muscle"	4.4		3100	g	61.1	cm	"Total length"	Subadult																																2016/10/11	2016/10/17
PRA000009	SAA000372	ST005	54021	es-BANK	EB02704	BfA-958	"Phoebastria nigripes"	"Black-footed albatross (BfA) "	1998	2	25					"Pacific Ocean"			24.5	24.5	169.6166667	169.6166667	Female	"Pectoral muscle"	5.4		3650	g	78.6	cm	"Total length"	Adult																																2016/10/11	2016/10/17
PRA000009	SAA000373	ST005	54021	es-BANK	EB02708	BfA-66	"Phoebastria nigripes"	"Black-footed albatross (BfA) "	1999	2	16					Asia	Japan	"Off coast of Ogasawara Islands, Tokyo"	27.03098889	27.11305556	142.1775	142.2380333	Male	"Pectoral muscle"	2.9		4000	g	83.7	cm	"Total length"	Adult																																2016/10/11	2016/10/17
PRA000009	SAA000374	ST005	54021	es-BANK	EB02712	BfA-69	"Phoebastria nigripes"	"Black-footed albatross (BfA) "	1999	3	7					Asia	Japan	"Off coast of Ogasawara Islands, Tokyo"	27.03098889	27.11305556	142.1775	142.2380333	Male	"Pectoral muscle"	3.8		4100	g	82.1	cm	"Total length"	Adult																																2016/10/11	2016/10/17
PRA000009	SAA000375	ST005	54021	es-BANK	EB02710	BfA-72	"Phoebastria nigripes"	"Black-footed albatross (BfA) "	1999	3						Asia	Japan	"Off coast of Ogasawara Islands, Tokyo"	27.01916667	27.18666667	142.1627778	142.2583333	Male	"Pectoral muscle"	4		4200	g	83.5	cm	"Total length"	Adult																																2016/10/11	2016/10/17
PRA000009	SAA000376	ST005	54020	es-BANK	EB03051	Lay-A3	"Phoebastria immutabilis"	"Laysan Albatross"	1998	3	16					"Pacific Ocean"			33.48333333	33.48333333	142.1	142.1	Female	"Pectoral muscle"	1.7		2000	g	77.6	cm	"Total length"	Adult																																2016/10/11	2016/10/17
PRA000009	SAA000377	ST005	54020	es-BANK	EB03043	Lay-419	"Phoebastria immutabilis"	"Laysan Albatross"	1998	2	12					"Pacific Ocean"			24.06666667	24.06666667	177.9833333	177.9833333	Male	"Pectoral muscle"	5.8		2900	g	80.3	cm	"Total length"	Adult																																2016/10/11	2016/10/17
PRA000009	SAA000378	ST005	54020	es-BANK	"EB03044 "	Lay-424	"Phoebastria immutabilis"	"Laysan Albatross"	1998	2	12					"Pacific Ocean"			24.06666667	24.06666667	177.9833333	177.9833333	Female	"Pectoral muscle"	3.9		2500	g	75.8	cm	"Total length"	Adult																																2016/10/11	2016/10/17
PRA000009	SAA000379	ST005	54020	es-BANK	EB03048	Lay-463	"Phoebastria immutabilis"	"Laysan Albatross"	1998	2	14					"Pacific Ocean"			24.06666667	24.58333333	171.5166667	171.5166667	Female	"Pectoral muscle"	0.97		2600	g	75.8	cm	"Total length"	Adult																																2016/10/11	2016/10/17
PRA000009	SAA000380	ST005	54020	es-BANK	"EB03050 "	Lay-950	"Phoebastria immutabilis"	"Laysan Albatross"	1998	2	25					"Pacific Ocean"			24.5	24.5	169.6166667	169.6166667	Male	"Pectoral muscle"	2.9		3300	g	82.2	cm	"Total length"	Adult																																2016/10/11	2016/10/17
PRA000009	SAA000381	ST005	30455	es-BANK	EB04992	741	"Fulmarus glacialis"	"Northern Fulmar"	1999	6	30					"Pacific Ocean"			51.5	51.5	180	180	Female	"Pectoral muscle"	3.3		590	g				Adult																																2016/10/11	2016/10/17
PRA000009	SAA000382	ST005	30455	es-BANK	EB04993	742	"Fulmarus glacialis"	"Northern Fulmar"	1999	6	30					"Pacific Ocean"			51.5	51.5	180	180	Female	"Pectoral muscle"	3.5		540	g				Adult																																2016/10/11	2016/10/17
PRA000009	SAA000383	ST005	30455			745	"Fulmarus glacialis"	"Northern Fulmar"	1999							"Pacific Ocean"			51.5	51.5	180	180	Male	"Pectoral muscle"	5.5		650	g				Adult																																2016/10/11	2016/10/17
PRA000009	SAA000384	ST005	30455	es-BANK	"EB05001 "	774	"Fulmarus glacialis"	"Northern Fulmar"	1999	7	14					"Pacific Ocean"			56.48333333	56.48333333	178.9833333	178.9833333	Male	"Pectoral muscle"	2.2		650	g				Adult																																2016/10/11	2016/10/17
PRA000009	SAA000385	ST005	30455	es-BANK	EB05002	775	"Fulmarus glacialis"	"Northern Fulmar"	1999	7	14					"Pacific Ocean"			56.48333333	56.48333333	178.9833333	178.9833333	Female	"Pectoral muscle"	1.9		600	g				Adult																																2016/10/11	2016/10/17
PRA000009	SAA000386	ST005	52647	es-BANK	EB01799	SSE-2	"Haliaeetus pelagicus"	"Stellers sea-Eagle"	1994	2	16					Asia	Japan	Hokkaido	43.93083333	43.94222222	144.3861111	144.4088889	Male	"Pectoral muscle"	0.81		4200	g				Adult																																2016/10/11	2016/10/17
PRA000009	SAA000387	ST005	179808	es-BANK	EB01059	99BTG-505	"Larus crassirostris"	"Black-tailed Gull"	1999	6	12					Asia	Japan	"Rishiri Island, Hokkaido"	45.10055556	45.25694444	141.135	141.3447222	Female	"Pectoral muscle"	5.3		550	g				Adult																																2016/10/11	2016/10/17
PRA000009	SAA000388	ST005	179808	es-BANK	EB01196	00BTG-557	"Larus crassirostris"	"Black-tailed Gull"	2000	6	5					Asia	Japan	"Rishiri Island, Hokkaido"	45.10055556	45.25694444	141.135	141.3447222	Female	"Pectoral muscle"	3.3		461	g	49.5	cm	"Total length"	Adult																																2016/10/11	2016/10/17
PRA000009	SAA000389	ST005	179808	es-BANK	EB01206	00BTG-558	"Larus crassirostris"	"Black-tailed Gull"	2000	6	6					Asia	Japan	"Rishiri Island, Hokkaido"	45.10055556	45.25694444	141.135	141.3447222	Female	"Pectoral muscle"	7.7		487	g	50	cm	"Total length"	Adult																																2016/10/11	2016/10/17
PRA000009	SAA000390	ST005	179808	es-BANK	EB01312	01BTG-518	"Larus crassirostris"	"Black-tailed Gull"	2001	6	9					Asia	Japan	"Rishiri Island, Hokkaido"	45.10055556	45.25694444	141.135	141.3447222	Female	"Pectoral muscle"	5.6		509	g				Adult																																2016/10/11	2016/10/17
PRA000009	SAA000391	ST005	179808	es-BANK	EB01351	01BTG-527	"Larus crassirostris"	"Black-tailed Gull"	2001	6	11					Asia	Japan	"Rishiri Island, Hokkaido"	45.10055556	45.25694444	141.135	141.3447222	Female	"Pectoral muscle"	5		485	g				Adult																																2016/10/11	2016/10/17
PRA000009	SAA000392	ST005	8957	es-BANK	EB01630	09-B110	"Accipiter gentilis"	Goshawk	1997	10	22					Asia	Japan	Tochigi	36.78722222	36.925	139.9286111	140.2588889	Male	"Pectoral muscle"	1.1		389	g	49.8	cm	"Total length"	Adult																																2016/10/11	2016/10/17
PRA000009	SAA000393	ST005	8962	es-BANK	EB00504	IPMA-165	"Aquila chrysaetos"	"Golden Eagle"	1994	10	3					Asia	Japan	Iwate	39.71075	40.04565278	141.47375	142.0098889	Female	"Pectoral muscle"	2.3		4100	g	85	cm	"Total length"	Adult																																2016/10/11	2016/10/17
PRA000009	SAA000394	ST005	8962	es-BANK	EB00508	IPMA-166	"Aquila chrysaetos"	"Golden Eagle"	1995	7	6					Asia	Japan	Iwate	38.85111111	38.97888889	141.4886111	141.5761111	Male	"Pectoral muscle"	0.96		2300	g	78	cm	"Total length"	Subadult																																2016/10/11	2016/10/17
PRA000009	SAA000395	ST005	36249	es-BANK	EB04543	981101O-JC1	"Corvus macrorhynchos"	"Jungle Crow"	1998	11	1					Asia	Japan	Osaka	34.305	34.97166667	135.135	135.7883333	Male	"Pectoral muscle"	0.91		465	g	58.1	cm	"Total length"	Adult																																2016/10/11	2016/10/17
PRA000009	SAA000396	ST005	36249	es-BANK	"EB04544 "	981101O-JC2	"Corvus macrorhynchos"	"Jungle Crow"	1998	11	1					Asia	Japan	Osaka	34.305	34.97166667	135.135	135.7883333	Male	"Pectoral muscle"	1.1		614	g	59.2	cm	"Total length"	Adult																																2016/10/11	2016/10/17
PRA000009	SAA000397	ST005	36249	es-BANK	"EB04545 "	981101O-JC4	"Corvus macrorhynchos"	"Jungle Crow"	1998	11	1					Asia	Japan	Osaka	34.305	34.97166667	135.135	135.7883333	Male	"Pectoral muscle"	1.8		610	g	60.1	cm	"Total length"	Adult																																2016/10/11	2016/10/17
PRA000009	SAA000398	ST005	36249	es-BANK	"EB04547 "	981101O-JC6	"Corvus macrorhynchos"	"Jungle Crow"	1998	11	1					Asia	Japan	Osaka	34.305	34.97166667	135.135	135.7883333	Male	"Pectoral muscle"	1.4		518	g	55.6	cm	"Total length"	Adult																																2016/10/11	2016/10/17
PRA000009	SAA000399	ST005	36249	es-BANK	"EB04549 "	981101O-JC8	"Corvus macrorhynchos"	"Jungle Crow"	1998	11	1					Asia	Japan	Osaka	34.305	34.97166667	135.135	135.7883333	Male	"Pectoral muscle"	0.92		528	g	56.6	cm	"Total length"	Adult																																2016/10/11	2016/10/17
PRA000009	SAA000400	ST005	9209			"01BLC04 (B-24)"	"Phalacrocorax carbo"	"Common Cormorant"	2001							Asia	Japan	"Lake Biwa, Shiga"	34.97222222	35.55222222	135.8594417	136.2613889	Male	"Pectoral muscle"	2.9		2370	g	78.2	cm	"Total length"	Adult																																2016/10/11	2016/10/17
PRA000009	SAA000401	ST005	9209			"01BLC06 (B-14)"	"Phalacrocorax carbo"	"Common Cormorant"	2001							Asia	Japan	"Lake Biwa, Shiga"	34.97222222	35.55222222	135.8594417	136.2613889	Male	"Pectoral muscle"	3.9		2140	g	76.5	cm	"Total length"	Adult																																2016/10/11	2016/10/17
PRA000009	SAA000402	ST005	9209			"01BLC08 (B-2)"	"Phalacrocorax carbo"	"Common Cormorant"	2001							Asia	Japan	"Lake Biwa, Shiga"	34.97222222	35.55222222	135.8594417	136.2613889	Male	"Pectoral muscle"	3.3		1940	g	80.2	cm	"Total length"	Adult																																2016/10/11	2016/10/17
PRA000009	SAA000403	ST005	9209			"01BLC12 (B-20)"	"Phalacrocorax carbo"	"Common Cormorant"	2001							Asia	Japan	"Lake Biwa, Shiga"	34.97222222	35.55222222	135.8594417	136.2613889	Female	"Pectoral muscle"	2		2160	g	75.3	cm	"Total length"	Adult																																2016/10/11	2016/10/17
PRA000017	SAA000619	ST003	9606			E-08	"Homo sapiens"	Human	2004							Asia	Japan	Ehime	32.88472222	34.30166667	132.0125	133.6930556	Male	Adipose	73								"25 y.o."	Rhabdomyosarcoma																													"Measenteric fat; Same sample as SAA000652"	2016/11/29	2016/12/5
PRA000017	SAA000620	ST003	9606			E-01	"Homo sapiens"	Human	2003							Asia	Japan	Ehime	32.88472222	34.30166667	132.0125	133.6930556	Male	Adipose	72								"34 y.o."	"Hepatic insufficiency, hepatitis B "																													"Measenteric fat"	2016/11/29	2016/12/5
PRA000017	SAA000621	ST003	9606			E-20	"Homo sapiens"	Human	2004							Asia	Japan	Ehime	32.88472222	34.30166667	132.0125	133.6930556	Male	Adipose	82								"40 y.o."	"Hepatic insufficiency, renal failure "																													"Measenteric fat"	2016/11/29	2016/12/5
PRA000017	SAA000622	ST003	9606			E-16	"Homo sapiens"	Human	2004							Asia	Japan	Ehime	32.88472222	34.30166667	132.0125	133.6930556	Male	Adipose	41								"41 y.o."	"Liposarcoma, liver metastasis, lung metastasis "																													"Measenteric fat; Same sample as SAA000659"	2016/11/29	2016/12/5
PRA000017	SAA000623	ST003	9606			E-02	"Homo sapiens"	Human	2003							Asia	Japan	Ehime	32.88472222	34.30166667	132.0125	133.6930556	Male	Adipose	11								"49 y.o."	"Malignant melanoma "																													"Measenteric fat"	2016/11/29	2016/12/5
PRA000017	SAA000624	ST003	9606			E-09	"Homo sapiens"	Human	2004							Asia	Japan	Ehime	32.88472222	34.30166667	132.0125	133.6930556	Male	Adipose	50								"57 y.o."	Cholangiocarcinoma																													"Measenteric fat; Same sample as SAA000653"	2016/11/29	2016/12/5
PRA000017	SAA000625	ST003	9606			215	"Homo sapiens"	Human	2003							Asia	Japan	Kanto	34.917714	36.28333333	138.7113889	140.857758	Male	Adipose	42								"58 y.o."	"Acute myelocytic leukemia "																													"Measenteric fat; Same sample as SAA000675"	2016/11/29	2016/12/5
PRA000017	SAA000626	ST003	9606			221	"Homo sapiens"	Human	2003							Asia	Japan	Kanto	34.917714	36.28333333	138.7113889	140.857758	Male	Adipose	52								"60 y.o."	"Hepatocellular carcinoma "																													"Measenteric fat; Same sample as SAA000681"	2016/11/29	2016/12/5
PRA000017	SAA000627	ST003	9606			222	"Homo sapiens"	Human	2003							Asia	Japan	Kanto	34.917714	36.28333333	138.7113889	140.857758	Male	Adipose	61								"66 y.o."	"Renal insufficiency "																													"Measenteric fat"	2016/11/29	2016/12/5
PRA000017	SAA000628	ST003	9606			E-04	"Homo sapiens"	Human	2004							Asia	Japan	Ehime	32.88472222	34.30166667	132.0125	133.6930556	Male	Adipose	62								"69 y.o."	"Cervical lymphnode metastatic cancer of unknown origin"																													"Measenteric fat; Same sample as SAA000648"	2016/11/29	2016/12/5
PRA000017	SAA000629	ST003	9606			E-12	"Homo sapiens"	Human	2004							Asia	Japan	Ehime	32.88472222	34.30166667	132.0125	133.6930556	Male	Adipose	75								"70 y.o."	"Perforation of gastro-intestinal tract, pneumocystis carini pneumonia "																													"Measenteric fat; Same sample as SAA000656"	2016/11/29	2016/12/5
PRA000017	SAA000630	ST003	9606			E-13	"Homo sapiens"	Human	2004							Asia	Japan	Ehime	32.88472222	34.30166667	132.0125	133.6930556	Male	Adipose	77								"73 y.o."	"Gastric cancer, malgnant lymphoma "																													"Measenteric fat; Same sample as SAA000657"	2016/11/29	2016/12/5
PRA000017	SAA000631	ST003	9606			E-10	"Homo sapiens"	Human	2004							Asia	Japan	Ehime	32.88472222	34.30166667	132.0125	133.6930556	Male	Adipose	76								"76 y.o."	"Pneumonia, idiopathic interstitial pneumonia "																													"Measenteric fat; Same sample as SAA000654"	2016/11/29	2016/12/5
PRA000017	SAA000632	ST003	9606			E-11	"Homo sapiens"	Human	2004							Asia	Japan	Ehime	32.88472222	34.30166667	132.0125	133.6930556	Male	Adipose	60								"79 y.o."	"Lung cancer "																													"Measenteric fat; Same sample as SAA000655"	2016/11/29	2016/12/5
PRA000017	SAA000633	ST003	9606			219	"Homo sapiens"	Human	2003							Asia	Japan	Kanto	34.917714	36.28333333	138.7113889	140.857758	Male	Adipose	69								"79 y.o."	"Malignant lymphoma "																													"Measenteric fat; Same sample as SAA000679"	2016/11/29	2016/12/5
PRA000017	SAA000634	ST003	9606			E-14	"Homo sapiens"	Human	2004							Asia	Japan	Ehime	32.88472222	34.30166667	132.0125	133.6930556	Male	Adipose	55								"81 y.o."	"Pancreatic cancer "																													"Measenteric fat"	2016/11/29	2016/12/5
PRA000017	SAA000635	ST003	9606			E-15	"Homo sapiens"	Human	2004							Asia	Japan	Ehime	32.88472222	34.30166667	132.0125	133.6930556	Male	Adipose	72								"81 y.o."	"Metastatic liver cancer "																													"Measenteric fat; Same sample as SAA000658"	2016/11/29	2016/12/5
PRA000017	SAA000636	ST003	9606			217	"Homo sapiens"	Human	2003							Asia	Japan	Kanto	34.917714	36.28333333	138.7113889	140.857758	Male	Adipose	72								"81 y.o."	"Cardiac infarction "																													"Measenteric fat; Same sample as SAA000677"	2016/11/29	2016/12/5
PRA000017	SAA000637	ST003	9606			E-03	"Homo sapiens"	Human	2003							Asia	Japan	Ehime	32.88472222	34.30166667	132.0125	133.6930556	Female	Adipose	77								"59 y.o."	"Acute lymphocytic leukemia"																													"Measenteric fat; Same sample as SAA000647"	2016/11/29	2016/12/5
PRA000017	SAA000638	ST003	9606			E-05	"Homo sapiens"	Human	2004							Asia	Japan	Ehime	32.88472222	34.30166667	132.0125	133.6930556	Female	Adipose	70								"53 y.o."	"Acute myelocytic leukemia "																													"Measenteric fat; Same sample as SAA000649"	2016/11/29	2016/12/5
PRA000017	SAA000639	ST003	9606			E-06	"Homo sapiens"	Human	2004							Asia	Japan	Ehime	32.88472222	34.30166667	132.0125	133.6930556	Female	Adipose	50								"69 y.o."	"Carcinoma of the gallbladder "																													"Measenteric fat; Same sample as SAA000650"	2016/11/29	2016/12/5
PRA000017	SAA000640	ST003	9606			E-07	"Homo sapiens"	Human	2004							Asia	Japan	Ehime	32.88472222	34.30166667	132.0125	133.6930556	Female	Adipose	58								"72 y.o."	"Hepatic insufficiency, liver cirrhosis "																													"Measenteric fat; Same sample as SAA000651"	2016/11/29	2016/12/5
PRA000017	SAA000641	ST003	9606			E-17	"Homo sapiens"	Human	2004							Asia	Japan	Ehime	32.88472222	34.30166667	132.0125	133.6930556	Female	Adipose	75								"62 y.o."	"Multiple systemic atrophy "																													"Measenteric fat; Same sample as SAA000660"	2016/11/29	2016/12/5
PRA000017	SAA000642	ST003	9606			212	"Homo sapiens"	Human	2003							Asia	Japan	Kanto	34.917714	36.28333333	138.7113889	140.857758	Female	Adipose	81								"62 y.o."	"Breast cancer"																													"Measenteric fat; Same sample as SAA000674"	2016/11/29	2016/12/5
PRA000017	SAA000643	ST003	9606			E-18	"Homo sapiens"	Human	2004							Asia	Japan	Ehime	32.88472222	34.30166667	132.0125	133.6930556	Female	Adipose	73								"76 y.o."	"Gastric cancer, lung cancer "																													"Measenteric fat; Same sample as SAA000661"	2016/11/29	2016/12/5
PRA000017	SAA000644	ST003	9606			E-19	"Homo sapiens"	Human	2004							Asia	Japan	Ehime	32.88472222	34.30166667	132.0125	133.6930556	Female	Adipose	75								"71 y.o."	"Breast cancer, lymphoangitis carcinomatosa, idiopathic interstitial pneumonia "																													"Measenteric fat; Same sample as SAA000662"	2016/11/29	2016/12/5
PRA000017	SAA000645	ST003	9606			218	"Homo sapiens"	Human	2003							Asia	Japan	Kanto	34.917714	36.28333333	138.7113889	140.857758	Female	Adipose	60								"83 y.o."	"Lung cancer"																													"Measenteric fat; Same sample as SAA000678"	2016/11/29	2016/12/5
PRA000017	SAA000646	ST003	9606			220	"Homo sapiens"	Human	2003							Asia	Japan	Kanto	34.917714	36.28333333	138.7113889	140.857758	Female	Adipose	66								"109 y.o."	"Senile deterioration"																													"Measenteric fat; Same sample as SAA000680"	2016/11/29	2016/12/5
PRA000030	SAA001903	ST004	34892	es-BANK	EW00736	9053	"Neophocaena phocaenoides"	"Finless Porpoise"	1990							Asia	China	Dongshan	23.65352778	23.71171389	117.2606639	117.2949778	Male	Blubber	87		27	kg	121	cm	"Body length"		"1 y.o."																															2017/5/31	2017/5/31
PRA000030	SAA001904	ST004	34892	es-BANK	EW00743	9063	"Neophocaena phocaenoides"	"Finless Porpoise"	1990							Asia	China	Dongshan	23.65352778	23.71171389	117.2606639	117.2949778	Male	Blubber	73		29	kg	126.2	cm	"Body length"		"1 y.o."																															2017/5/31	2017/5/31
PRA000030	SAA001905	ST004	34892	es-BANK	EW00747	9067	"Neophocaena phocaenoides"	"Finless Porpoise"	1990							Asia	China	Dongshan	23.65352778	23.71171389	117.2606639	117.2949778	Male	Blubber	92		52.5	kg	153.2	cm	"Body length"		"6 y.o."																															2017/5/31	2017/5/31
PRA000030	SAA001906	ST004	34892	es-BANK	EW00753	9074	"Neophocaena phocaenoides"	"Finless Porpoise"	1990							Asia	China	Dongshan	23.65352778	23.71171389	117.2606639	117.2949778	Male	Blubber	78		54	kg	158.5	cm	"Body length"		"6 y.o."																															2017/5/31	2017/5/31
PRA000030	SAA001907	ST004	34892	es-BANK	EW00755	9076	"Neophocaena phocaenoides"	"Finless Porpoise"	1990							Asia	China	Dongshan	23.65352778	23.71171389	117.2606639	117.2949778	Male	Blubber	83		57	kg	160.3	cm	"Body length"		"11 y.o."																															2017/5/31	2017/5/31
PRA000030	SAA001908	ST004	34892	es-BANK	EW00758	9079	"Neophocaena phocaenoides"	"Finless Porpoise"	1990							Asia	China	Dongshan	23.65352778	23.71171389	117.2606639	117.2949778	Male	Blubber	91		60	kg	161.7	cm	"Body length"		"5 y.o."																															2017/5/31	2017/5/31
PRA000030	SAA001909	ST004	34892	es-BANK	EW00741	9061	"Neophocaena phocaenoides"	"Finless Porpoise"	1990							Asia	China	Dongshan	23.65352778	23.71171389	117.2606639	117.2949778	Male	Blubber	71		63	kg	167.1	cm	"Body length"		"8 y.o."																															2017/5/31	2017/5/31
PRA000030	SAA001910	ST004	34892	es-BANK	EW00861	NP00-28/12	"Neophocaena phocaenoides"	"Finless Porpoise"	2000	12	28					Asia	China	"Hong Kong"	22.16097222	22.49902222	113.8576722	114.4423972	Male	Blubber	40																																						"Body length: >123 cm"	2017/5/31	2017/5/31
PRA000030	SAA001911	ST004	34892	es-BANK	EW00860	NP00-26/12	"Neophocaena phocaenoides"	"Finless Porpoise"	2000	12	26					Asia	China	"Hong Kong"	22.16097222	22.49902222	113.8576722	114.4423972	Male	Blubber	34				152	cm	"Body length"																																	2017/5/31	2017/5/31
PRA000030	SAA001912	ST004	34892	es-BANK	EW00862	NP01-20/03	"Neophocaena phocaenoides"	"Finless Porpoise"	2001	3	20					Asia	China	"Hong Kong"	22.16097222	22.49902222	113.8576722	114.4423972	Male	Blubber	63				121	cm	"Body length"																																	2017/5/31	2017/5/31
PRA000030	SAA001913	ST004	34892	es-BANK	EW00864	NP01-24/05	"Neophocaena phocaenoides"	"Finless Porpoise"	2001	5	24					Asia	China	"Hong Kong"	22.16097222	22.49902222	113.8576722	114.4423972	Male	Blubber	65				159	cm	"Body length"																																	2017/5/31	2017/5/31
PRA000030	SAA001914	ST004	34892	es-BANK	EW00863	NP01-12/04	"Neophocaena phocaenoides"	"Finless Porpoise"	2001	4	12					Asia	China	"Hong Kong"	22.16097222	22.49902222	113.8576722	114.4423972	Male	Blubber	32				163	cm	"Body length"																																	2017/5/31	2017/5/31
PRA000030	SAA001915	ST004	34892	es-BANK	EW00860	NP00-26/12	"Neophocaena phocaenoides"	"Finless Porpoise"	2000	12	26					Asia	China	"Hong Kong"	22.16097222	22.49902222	113.8576722	114.4423972	Male	"Stomach Contents"	7.7				152	cm	"Body length"																																	2017/5/31	2017/5/31
PRA000030	SAA001916	ST004	34892	es-BANK	EW00863	NP01-12/04	"Neophocaena phocaenoides"	"Finless Porpoise"	2001	4	12					Asia	China	"Hong Kong"	22.16097222	22.49902222	113.8576722	114.4423972	Male	"Stomach Contents"	4.2				163	cm	"Body length"																																	2017/5/31	2017/5/31
PRA000030	SAA001917	ST004	103600	es-BANK	EW00632	SC97-03/09	"Sousa chinensis"	" Indo-pacific humpbacked dolphin"	1997	9	3					Asia	China	"Hong Kong"	22.16097222	22.49902222	113.8576722	114.4423972	Male	Blubber	53				265	cm	"Body length"																																	2017/5/31	2017/5/31
PRA000030	SAA001918	ST004	103600	es-BANK	EW00639	SC98-07/08	"Sousa chinensis"	" Indo-pacific humpbacked dolphin"	1998	8	7					Asia	China	"Hong Kong"	22.16097222	22.49902222	113.8576722	114.4423972	Male	Blubber	13				221	cm	"Body length"																																	2017/5/31	2017/5/31
PRA000030	SAA001919	ST004	103600	es-BANK	EW00654	SC00-30/11	"Sousa chinensis"	" Indo-pacific humpbacked dolphin"	2000	11	30					Asia	China	"Hong Kong"	22.16097222	22.49902222	113.8576722	114.4423972	Male	Blubber	34				231	cm	"Body length"																																	2017/5/31	2017/5/31
PRA000030	SAA001920	ST004	103600	es-BANK	EW00655	SC00-14/12	"Sousa chinensis"	" Indo-pacific humpbacked dolphin"	2000	12	14					Asia	China	"Hong Kong"	22.16097222	22.49902222	113.8576722	114.4423972	Female	Blubber	18				252	cm	"Body length"																																	2017/5/31	2017/5/31
PRA000030	SAA001921	ST004	103600	es-BANK	EW00657	SC01-06/05	"Sousa chinensis"	" Indo-pacific humpbacked dolphin"	2001	5	6					Asia	China	"Hong Kong"	22.16097222	22.49902222	113.8576722	114.4423972	Male	Blubber	29				106	cm	"Body length"																																	2017/5/31	2017/5/31
PRA000030	SAA001924	ST004	103600	es-BANK	EW00660	SC01-28/06	"Sousa chinensis"	" Indo-pacific humpbacked dolphin"	2001	6	28					Asia	China	"Hong Kong"	22.16097222	22.49902222	113.8576722	114.4423972	Male	Blubber	18				247	cm	"Body length"																																	2017/5/31	2017/5/31
PRA000030	SAA001925	ST004	103600	es-BANK	EW00656	SC01-11/02	"Sousa chinensis"	" Indo-pacific humpbacked dolphin"	2001	2	11					Asia	China	"Hong Kong"	22.16097222	22.49902222	113.8576722	114.4423972	Female	Blubber	25				234	cm	"Body length"																																	2017/5/31	2017/5/31
PRA000030	SAA001926	ST004	34892	es-BANK	EW00859	NP00-25/12	"Neophocaena phocaenoides"	"Finless Porpoise"	2000	12	25					Asia	China	"Hong Kong"	22.16097222	22.49902222	113.8576722	114.4423972	Female	Blubber	28				145	cm	"Body length"																																	2017/5/31	2017/5/31
PRA000030	SAA001927	ST004	34892	es-BANK	EW00865	NP01-15/06	"Neophocaena phocaenoides"	"Finless Porpoise"	2001	6	15					Asia	China	"Hong Kong"	22.16097222	22.49902222	113.8576722	114.4423972	UK	Blubber	27				123	cm	"Body length"																																	2017/5/31	2017/5/31
PRA000030	SAA001934	ST004	34892	es-BANK	EW00859	NP00-25/12	"Neophocaena phocaenoides"	"Finless Porpoise"	2000	12	25					Asia	China	"Hong Kong"	22.16097222	22.49902222	113.8576722	114.4423972	Female	Liver	7.1				145	cm	"Body length"																																	2017/5/31	2017/5/31
PRA000030	SAA001935	ST004	34892	es-BANK	EW00859	NP00-25/12	"Neophocaena phocaenoides"	"Finless Porpoise"	2000	12	25					Asia	China	"Hong Kong"	22.16097222	22.49902222	113.8576722	114.4423972	Female	Kidney	3.7				145	cm	"Body length"																																	2017/5/31	2017/5/31
PRA000030	SAA001936	ST004	34892	es-BANK	EW00863	NP01-12/04	"Neophocaena phocaenoides"	"Finless Porpoise"	2001	4	12					Asia	China	"Hong Kong"	22.16097222	22.49902222	113.8576722	114.4423972	Male	Liver	4.3				163	cm	"Body length"																																	2017/5/31	2017/5/31
PRA000030	SAA001937	ST004	34892	es-BANK	EW00863	NP01-12/04	"Neophocaena phocaenoides"	"Finless Porpoise"	2001	4	12					Asia	China	"Hong Kong"	22.16097222	22.49902222	113.8576722	114.4423972	Male	Kidney	2.1				163	cm	"Body length"																																	2017/5/31	2017/5/31
PRA000030	SAA001938	ST004	34892	es-BANK	EW00862	NP01-20/03	"Neophocaena phocaenoides"	"Finless Porpoise"	2001	3	20					Asia	China	"Hong Kong"	22.16097222	22.49902222	113.8576722	114.4423972	Male	Liver	11				121	cm	"Body length"																																	2017/5/31	2017/5/31
PRA000030	SAA001939	ST004	34892	es-BANK	EW00862	NP01-20/03	"Neophocaena phocaenoides"	"Finless Porpoise"	2001	3	20					Asia	China	"Hong Kong"	22.16097222	22.49902222	113.8576722	114.4423972	Male	Kidney	3.2				121	cm	"Body length"																																	2017/5/31	2017/5/31
PRA000030	SAA001940	ST004	34892	es-BANK	EW00865	NP01-15/06	"Neophocaena phocaenoides"	"Finless Porpoise"	2001	6	15					Asia	China	"Hong Kong"	22.16097222	22.49902222	113.8576722	114.4423972	UK	Liver	12				123	cm	"Body length"																																	2017/5/31	2017/5/31
PRA000030	SAA001942	ST004	103600	es-BANK	EW00654	SC00-30/11	"Sousa chinensis"	" Indo-pacific humpbacked dolphin"	2000	11	30					Asia	China	"Hong Kong"	22.16097222	22.49902222	113.8576722	114.4423972	Male	Liver	6.3				231	cm	"Body length"																																	2017/5/31	2017/5/31
PRA000030	SAA001943	ST004	103600	es-BANK	EW00654	SC00-30/11	"Sousa chinensis"	" Indo-pacific humpbacked dolphin"	2000	11	30					Asia	China	"Hong Kong"	22.16097222	22.49902222	113.8576722	114.4423972	Male	Kidney	3.6				231	cm	"Body length"																																	2017/5/31	2017/5/31
PRA000030	SAA001944	ST004	103600	es-BANK	EW00656	SC01-11/02	"Sousa chinensis"	" Indo-pacific humpbacked dolphin"	2001	2	11					Asia	China	"Hong Kong"	22.16097222	22.49902222	113.8576722	114.4423972	Female	Liver	11				234	cm	"Body length"																																	2017/5/31	2017/5/31
PRA000030	SAA001945	ST004	103600	es-BANK	EW00656	SC01-11/02	"Sousa chinensis"	" Indo-pacific humpbacked dolphin"	2001	2	11					Asia	China	"Hong Kong"	22.16097222	22.49902222	113.8576722	114.4423972	Female	Kidney	5.3				234	cm	"Body length"																																	2017/5/31	2017/5/31
PRA000030	SAA001946	ST004	103600	es-BANK	EW00657	SC01-06/05	"Sousa chinensis"	" Indo-pacific humpbacked dolphin"	2001	5	6					Asia	China	"Hong Kong"	22.16097222	22.49902222	113.8576722	114.4423972	Male	Liver	3.4				106	cm	"Body length"																																	2017/5/31	2017/5/31
PRA000030	SAA001947	ST004	103600	es-BANK	EW00657	SC01-06/05	"Sousa chinensis"	" Indo-pacific humpbacked dolphin"	2001	5	6					Asia	China	"Hong Kong"	22.16097222	22.49902222	113.8576722	114.4423972	Male	Kidney	5.6				106	cm	"Body length"																																	2017/5/31	2017/5/31
PRA000032	SAA001968	ST004	9737	es-BANK	EW04115		"Stenella coeruleoalba"	"Striped dolphin"	1978	12	19					Asia	Japan	"Taiji, Wakayama"	33.54416667	33.62305833	135.885	136.0180583	Male	Blubber	36.05		132	kg	227	cm	"Body length"	Matured	"11.5 y.o."																															2017/6/9	2017/6/9
PRA000032	SAA001969	ST004	9737	es-BANK	EW04116		"Stenella coeruleoalba"	"Striped dolphin"	1978	12	19					Asia	Japan	"Taiji, Wakayama"	33.54416667	33.62305833	135.885	136.0180583	Male	Blubber	49.24		160	kg	230	cm	"Body length"	Matured	"17.5 y.o."																															2017/6/9	2017/6/9
PRA000032	SAA001970	ST004	9737	es-BANK	EW04157		"Stenella coeruleoalba"	"Striped dolphin"	1979	12	15					Asia	Japan	"Taiji, Wakayama"	33.54416667	33.62305833	135.885	136.0180583	Male	Blubber	55				235	cm	"Body length"	Matured	"19.5 y.o."																															2017/6/9	2017/6/9
PRA000032	SAA001971	ST004	9737	es-BANK	EW04174		"Stenella coeruleoalba"	"Striped dolphin"	1979	12	15					Asia	Japan	"Taiji, Wakayama"	33.54416667	33.62305833	135.885	136.0180583	Male	Blubber	73.54				239	cm	"Body length"	Matured	"18.5 y.o."																															2017/6/9	2017/6/9
PRA000032	SAA001972	ST004	9737	es-BANK	EW04180		"Stenella coeruleoalba"	"Striped dolphin"	1979	12	15					Asia	Japan	"Taiji, Wakayama"	33.54416667	33.62305833	135.885	136.0180583	Male	Blubber	90.98				230	cm	"Body length"	Matured	"18.5 y.o."																															2017/6/9	2017/6/9
PRA000032	SAA001973	ST004	9737	es-BANK	EW04186		"Stenella coeruleoalba"	"Striped dolphin"	1979	12	15					Asia	Japan	"Taiji, Wakayama"	33.54416667	33.62305833	135.885	136.0180583	Male	Blubber	67.17				233	cm	"Body length"	Matured	"19.5 y.o."																															2017/6/9	2017/6/9
PRA000032	SAA001974	ST004	9737	es-BANK	EW04438		"Stenella coeruleoalba"	"Striped dolphin"	1986	12	9					Asia	Japan	"Taiji, Wakayama"	33.54416667	33.62305833	135.885	136.0180583	Male	Blubber	55.93						"Body length"		"20.5 y.o."																															2017/6/9	2017/6/9
PRA000032	SAA001975	ST004	9737	es-BANK	EW04439		"Stenella coeruleoalba"	"Striped dolphin"	1986	12	9					Asia	Japan	"Taiji, Wakayama"	33.54416667	33.62305833	135.885	136.0180583	Male	Blubber	46.75				228	cm	"Body length"		"9.5 y.o."																															2017/6/9	2017/6/9
PRA000032	SAA001976	ST004	9737	es-BANK	EW04500		"Stenella coeruleoalba"	"Striped dolphin"	1986	12	9					Asia	Japan	"Taiji, Wakayama"	33.54416667	33.62305833	135.885	136.0180583	Male	Blubber	54				251	cm	"Body length"		"31.5 y.o."																															2017/6/9	2017/6/9
PRA000032	SAA001977	ST004	9737	es-BANK	EW04534		"Stenella coeruleoalba"	"Striped dolphin"	1992	8	3					"Pacific Ocean"		"Pacific Ocean"	37.2		147.55		Male	Blubber	62.26				226	cm	"Body length"																																	2017/6/9	2017/6/9
PRA000032	SAA001978	ST004	9737	es-BANK	EW04539		"Stenella coeruleoalba"	"Striped dolphin"	1992	8	8					"Pacific Ocean"		"Pacific Ocean"	36.95		151.6666667		Male	Blubber	56.05				231	cm	"Body length"																																	2017/6/9	2017/6/9
PRA000032	SAA001979	ST004	9737	es-BANK	EW04547		"Stenella coeruleoalba"	"Striped dolphin"	1992	8	10					"Pacific Ocean"		"Pacific Ocean"	36.93333333		154.3		Male	Blubber	64.74				226	cm	"Body length"																																	2017/6/9	2017/6/9
PRA000032	SAA001980	ST004	9737	es-BANK	EW04548		"Stenella coeruleoalba"	"Striped dolphin"	1992	8	11					"Pacific Ocean"		"Pacific Ocean"	37.25		154.4833333		Male	Blubber	45.91				226	cm	"Body length"																																	2017/6/9	2017/6/9
PRA000032	SAA001981	ST004	9737	es-BANK	EW04557		"Stenella coeruleoalba"	"Striped dolphin"	1992	11	22					"Pacific Ocean"		"Pacific Ocean"	33.54999		136.0666667		Male	Blubber	28.43				235	cm	"Body length"																																	2017/6/9	2017/6/9
PRA000032	SAA001982	ST004	9737	es-BANK	EW04559		"Stenella coeruleoalba"	"Striped dolphin"	1992	11	23					"Pacific Ocean"		"Pacific Ocean"	33.48333333		136.19999		Male	Blubber	71.5				230	cm	"Body length"																																	2017/6/9	2017/6/9
PRA000032	SAA001983	ST004	9737	es-BANK	EW04566	SD1	"Stenella coeruleoalba"	"Striped dolphin"	2003	3	30					Asia	Japan	"Gogo-shima, Ehime"	33.86462778	33.929025	132.6527333	132.6982167	Male	Blubber	56.2		155	kg	230.8	cm	"Body length"																																	2017/6/9	2017/6/9
PRA000032	SAA001984	ST004	9737	es-BANK	EW04567	SD2	"Stenella coeruleoalba"	"Striped dolphin"	2003	3	30					Asia	Japan	"Gogo-shima, Ehime"	33.86462778	33.929025	132.6527333	132.6982167	Female	Blubber	56.2		105	kg	223	cm	"Body length"																																	2017/6/9	2017/6/9
PRA000032	SAA001985	ST004	9737	es-BANK	EW04568	SD3	"Stenella coeruleoalba"	"Striped dolphin"	2003	4	1					Asia	Japan	"Gogo-shima, Ehime"	33.86462778	33.929025	132.6527333	132.6982167	Male	Blubber	58.4		150	kg	237.6	cm	"Body length"																																	2017/6/9	2017/6/9
PRA000032	SAA001986	ST004	9737	es-BANK	EW04569	SD4	"Stenella coeruleoalba"	"Striped dolphin"	2003	4	1					Asia	Japan	"Gogo-shima, Ehime"	33.86462778	33.929025	132.6527333	132.6982167	Male	Blubber	49.8		155	kg	232	cm	"Body length"																																	2017/6/9	2017/6/9
PRA000032	SAA001987	ST004	9737	es-BANK	EW04570	SD5	"Stenella coeruleoalba"	"Striped dolphin"	2003	4	1					Asia	Japan	"Gogo-shima, Ehime"	33.86462778	33.929025	132.6527333	132.6982167	Male	Blubber	44.1		135	kg	231	cm	"Body length"																																	2017/6/9	2017/6/9
PRA000032	SAA001988	ST004	9737	es-BANK	EW04571	SD6	"Stenella coeruleoalba"	"Striped dolphin"	2003	4	1					Asia	Japan	"Gogo-shima, Ehime"	33.86462778	33.929025	132.6527333	132.6982167	Male	Blubber	54.4		150	kg	236.5	cm	"Body length"																																	2017/6/9	2017/6/9
PRA000036	SAA002109	ST004	103596	es-BANK	EW00089	820106-16	"Peponocephala electra"	"Melon-headed whale"	1982	1						Asia	Japan	"Aoshima, Miyazaki"	31.45	32.73333333	131.9163889	132.5502778	Male	Blubber	80		211.7	kg	258	cm	"Body length"	Mature																																2017/5/12	2017/5/12
PRA000036	SAA002110	ST004	103596	es-BANK	EW00090	820106-17	"Peponocephala electra"	"Melon-headed whale"	1982	1						Asia	Japan	"Aoshima, Miyazaki"	31.45	32.73333333	131.9163889	132.5502778	Male	Blubber	54		198.4	kg	251	cm	"Body length"	Mature	"37.5 y.o."																															2017/5/12	2017/5/12
PRA000036	SAA002111	ST004	103596	es-BANK	EW00091	820106-18	"Peponocephala electra"	"Melon-headed whale"	1982	1						Asia	Japan	"Aoshima, Miyazaki"	31.45	32.73333333	131.9163889	132.5502778	Male	Blubber	46		175.6	kg	247.5	cm	"Body length"	Mature	"24.5 y.o."																															2017/05/12	2017/05/12
PRA000036	SAA002112	ST004	103596	es-BANK	EW00093	820106-20	"Peponocephala electra"	"Melon-headed whale"	1982	1						Asia	Japan	"Aoshima, Miyazaki"	31.45	32.73333333	131.9163889	132.5502778	Male	Blubber	64		196.5	kg	247	cm	"Body length"	Mature	"41.5 y.o."																															2017/5/12	2017/5/12
PRA000036	SAA002113	ST004	103596	es-BANK	EW00086	820106-13	"Peponocephala electra"	"Melon-headed whale"	1982	1						Asia	Japan	"Aoshima, Miyazaki"	31.45	32.73333333	131.9163889	132.5502778	Male	Blubber	66		144.2	kg	236	cm	"Body length"	Immature	"12.5 y.o."																															2017/5/12	2017/5/12
PRA000036	SAA002114	ST004	103596	es-BANK	EW00076	820106-03	"Peponocephala electra"	"Melon-headed whale"	1982	1						Asia	Japan	"Aoshima, Miyazaki"	31.45	32.73333333	131.9163889	132.5502778	Female	Blubber	44		165.9	kg	240	cm	"Body length"	Mature	"29.5 y.o."																														"Pregnant: Dam of SAA002118 (EW00094)"	2017/5/12	2017/5/12
PRA000036	SAA002115	ST004	103596	es-BANK	EW00088	820106-15	"Peponocephala electra"	"Melon-headed whale"	1982	1						Asia	Japan	"Aoshima, Miyazaki"	31.45	32.73333333	131.9163889	132.5502778	Female	Blubber	66		172.8	kg	235	cm	"Body length"	Mature	"25.5 y.o."																														"Pregnant: Dam of SAA002117(EW00095)"	2017/5/12	2017/5/12
PRA000036	SAA002116	ST004	103596	es-BANK	EW00101	820109-52	"Peponocephala electra"	"Melon-headed whale"	1982	1						Asia	Japan	"Aoshima, Miyazaki"	31.45	32.73333333	131.9163889	132.5502778	Male	Blubber	44		12.2	kg	101	cm	"Body length"	Fetus																															"Fetus of EW00098"	2017/5/12	2017/5/12
PRA000036	SAA002117	ST004	103596	es-BANK	EW00095	820106-22	"Peponocephala electra"	"Melon-headed whale"	1982	1						Asia	Japan	"Aoshima, Miyazaki"	31.45	32.73333333	131.9163889	132.5502778	Male	Blubber	44		9.26	kg	92	cm	"Body length"	Fetus																															"Fetus of SAA002115 (EW00088)"	2017/5/12	2017/5/12
PRA000036	SAA002118	ST004	103596	es-BANK	EW00094	820106-21	"Peponocephala electra"	"Melon-headed whale"	1982	1						Asia	Japan	"Aoshima, Miyazaki"	31.45	32.73333333	131.9163889	132.5502778	Male	Blubber	39		7.26	kg	80	cm	"Body length"	Fetus																															"Fetus of SAA002114 (EW00076)"	2017/5/12	2017/5/12
PRA000036	SAA002119	ST004	103596	es-BANK	EW00113	M32623	"Peponocephala electra"	"Melon-headed whale"	2001	2	12					Asia	Japan	"Hasaki, Ibaraki"	35.73184444	35.82913333	140.7697722	140.8939278	Male	Blubber	63				270	cm	"Body length"	Mature																																2017/5/12	2017/5/12
PRA000036	SAA002120	ST004	103596	es-BANK	EW00127	M32677	"Peponocephala electra"	"Melon-headed whale"	2001	3	12					Asia	Japan	"Tanegashima, Kagoshima"	30.28055556	30.89444444	130.8252778	131.2708333	Male	Blubber	63				261	cm	"Body length"	Immature																																2017/5/12	2017/5/12
PRA000036	SAA002121	ST004	103596	es-BANK	EW04690	M32818	"Peponocephala electra"	"Melon-headed whale"	2002	2	25					Asia	Japan	"Hasaki, Ibaraki"	35.73184444	35.82913333	140.7697722	140.8939278	Male	Blubber	30				255	cm	"Body length"	Immature	"11.5 y.o."																															2017/5/12	2017/5/12
PRA000036	SAA002122	ST004	103596	es-BANK	EW00125	M32655	"Peponocephala electra"	"Melon-headed whale"	2001	3	12					Asia	Japan	"Tanegashima, Kagoshima"	30.28055556	30.89444444	130.8252778	131.2708333	Male	Blubber	73				253	cm	"Body length"	Mature																																2017/5/12	2017/5/12
PRA000036	SAA002123	ST004	103596	es-BANK	EW00121	M32632	"Peponocephala electra"	"Melon-headed whale"	2001	2	14					Asia	Japan	"Hasaki, Ibaraki"	35.73184444	35.82913333	140.7697722	140.8939278	Male	Blubber	67				249	cm	"Body length"	Unknown																																2017/5/12	2017/5/12
PRA000036	SAA002124	ST004	103596	es-BANK	EW00124	M32654	"Peponocephala electra"	"Melon-headed whale"	2001	3	12					Asia	Japan	"Tanegashima, Kagoshima"	30.28055556	30.89444444	130.8252778	131.2708333	Male	Blubber	74				245.5	cm	"Body length"	Mature																																2017/05/12	2017/05/12
PRA000036	SAA002125	ST004	103596	es-BANK	EW00134	M32774	"Peponocephala electra"	"Melon-headed whale"	2002	2	25					Asia	Japan	"Hasaki, Ibaraki"	35.73184444	35.82913333	140.7697722	140.8939278	Male	Blubber	39				243	cm	"Body length"	Mature	"15.5 y.o."																															2017/5/12	2017/5/12
PRA000036	SAA002126	ST004	103596	es-BANK	EW04669	M32785	"Peponocephala electra"	"Melon-headed whale"	2002	2	25					Asia	Japan	"Hasaki, Ibaraki"	35.73184444	35.82913333	140.7697722	140.8939278	Male	Blubber	72				243	cm	"Body length"	Mature	"16.5 y.o."																															2017/5/12	2017/5/12
PRA000036	SAA002127	ST004	103596	es-BANK	EW04676	M32798	"Peponocephala electra"	"Melon-headed whale"	2002	2	25					Asia	Japan	"Hasaki, Ibaraki"	35.73184444	35.82913333	140.7697722	140.8939278	Male	Blubber	41				234	cm	"Body length"	Immature	"10.5 y.o."																															2017/5/12	2017/5/12
PRA000036	SAA002128	ST004	103596	es-BANK	EW00132	M32770	"Peponocephala electra"	"Melon-headed whale"	2002	2	25					Asia	Japan	"Hasaki, Ibaraki"	35.73184444	35.82913333	140.7697722	140.8939278	Male	Blubber	69				222	cm	"Body length"	Immature																																2017/5/12	2017/5/12
PRA000036	SAA002129	ST004	103596	es-BANK	EW00130	M32768	"Peponocephala electra"	"Melon-headed whale"	2002	2	25					Asia	Japan	"Hasaki, Ibaraki"	35.73184444	35.82913333	140.7697722	140.8939278	Male	Blubber	58				219	cm	"Body length"	Immature	"5.5 y.o."																															2017/5/12	2017/5/12
PRA000036	SAA002130	ST004	103596	es-BANK	EW04667	M32780	"Peponocephala electra"	"Melon-headed whale"	2002	2	25					Asia	Japan	"Hasaki, Ibaraki"	35.73184444	35.82913333	140.7697722	140.8939278	Male	Blubber	63				214	cm	"Body length"	Immature	"2 y.o."																															2017/5/12	2017/5/12
PRA000036	SAA002131	ST004	103596	es-BANK	EW00137	M32814	"Peponocephala electra"	"Melon-headed whale"	2002	2	25					Asia	Japan	"Hasaki, Ibaraki"	35.73184444	35.82913333	140.7697722	140.8939278	Male	Blubber	54				211	cm	"Body length"	Immature																																2017/5/12	2017/5/12
PRA000036	SAA002132	ST004	103596	es-BANK	EW00138	M32815	"Peponocephala electra"	"Melon-headed whale"	2001	2	25					Asia	Japan	"Hasaki, Ibaraki"	35.73184444	35.82913333	140.7697722	140.8939278	Female	Blubber	63				250	cm	"Body length"	Mature	"30.5 y.o."																															2017/5/12	2017/5/12
PRA000036	SAA002133	ST004	103596	es-BANK	EW00123	M32637	"Peponocephala electra"	"Melon-headed whale"	2001	3	12					Asia	Japan	"Tanegashima, Kagoshima"	30.28055556	30.89444444	130.8252778	131.2708333	Female	Blubber	74				248	cm	"Body length"	Mature																																2017/5/12	2017/5/12
PRA000036	SAA002134	ST004	103596	es-BANK	EW04689	M32816	"Peponocephala electra"	"Melon-headed whale"	2002	2	25					Asia	Japan	"Hasaki, Ibaraki"	35.73184444	35.82913333	140.7697722	140.8939278	Female	Blubber	50				248	cm	"Body length"	Mature	"20.5 y.o."																														Pregnant	2017/5/12	2017/5/12
PRA000036	SAA002135	ST004	103596	es-BANK	EW04661	M32771	"Peponocephala electra"	"Melon-headed whale"	2002	2	25					Asia	Japan	"Hasaki, Ibaraki"	35.73184444	35.82913333	140.7697722	140.8939278	Female	Blubber	62				246	cm	"Body length"	Mature	"13.5 y.o."																															2017/5/12	2017/5/12
PRA000036	SAA002136	ST004	103596	es-BANK	EW04682	M32805	"Peponocephala electra"	"Melon-headed whale"	2002	2	25					Asia	Japan	"Hasaki, Ibaraki"	35.73184444	35.82913333	140.7697722	140.8939278	Female	Blubber	76				246	cm	"Body length"	Mature	"35.5 y.o."																															2017/5/12	2017/5/12
PRA000036	SAA002137	ST004	103596	es-BANK	EW00114	M32624	"Peponocephala electra"	"Melon-headed whale"	2001	2	12					Asia	Japan	"Hasaki, Ibaraki"	35.73184444	35.82913333	140.7697722	140.8939278	Female	Blubber	59				245	cm	"Body length"	Mature																																2017/5/12	2017/5/12
PRA000036	SAA002138	ST004	103596	es-BANK	EW00133	M32772	"Peponocephala electra"	"Melon-headed whale"	2002	2	25					Asia	Japan	"Hasaki, Ibaraki"	35.73184444	35.82913333	140.7697722	140.8939278	Female	Blubber	47				242	cm	"Body length"	Mature																																2017/5/12	2017/5/12
PRA000036	SAA002139	ST004	103596	es-BANK	EW04681	M32804	"Peponocephala electra"	"Melon-headed whale"	2002	2	25					Asia	Japan	"Hasaki, Ibaraki"	35.73184444	35.82913333	140.7697722	140.8939278	Female	Blubber	54				241	cm	"Body length"	Mature	"9.5 y.o."																															2017/5/12	2017/5/12
PRA000036	SAA002140	ST004	103596	es-BANK	EW00126	M32660	"Peponocephala electra"	"Melon-headed whale"	2001	3	12					Asia	Japan	"Tanegashima, Kagoshima"	30.28055556	30.89444444	130.8252778	131.2708333	Female	Blubber	77				236	cm	"Body length"	Mature																																2017/5/12	2017/5/12
PRA000036	SAA002141	ST004	103596	es-BANK	EW00142	M32830	"Peponocephala electra"	"Melon-headed whale"	2002	2	25					Asia	Japan	"Hasaki, Ibaraki"	35.73184444	35.82913333	140.7697722	140.8939278	Female	Blubber	54				236	cm	"Body length"	Mature																																2017/5/12	2017/5/12
PRA000036	SAA002142	ST004	103596	es-BANK	EW00140	M32826	"Peponocephala electra"	"Melon-headed whale"	2002	2	25					Asia	Japan	"Hasaki, Ibaraki"	35.73184444	35.82913333	140.7697722	140.8939278	Female	Blubber	47				231	cm	"Body length"	Mature																																2017/5/12	2017/5/12
PRA000036	SAA002143	ST004	103596	es-BANK	EW00141	M32828	"Peponocephala electra"	"Melon-headed whale"	2002	2	25					Asia	Japan	"Hasaki, Ibaraki"	35.73184444	35.82913333	140.7697722	140.8939278	Female	Blubber	63				231	cm	"Body length"	Mature																																2017/5/12	2017/5/12
PRA000036	SAA002144	ST004	103596	es-BANK	EW00104	020225-81	"Peponocephala electra"	"Melon-headed whale"	2002	2	25					Asia	Japan	"Hasaki, Ibaraki"	35.73184444	35.82913333	140.7697722	140.8939278	Female	Blubber	51				230	cm	"Body length"	Mature																																2017/5/12	2017/5/12
PRA000036	SAA002145	ST004	103596	es-BANK	EW00110	M32800	"Peponocephala electra"	"Melon-headed whale"	2002	2	25					Asia	Japan	"Hasaki, Ibaraki"	35.73184444	35.82913333	140.7697722	140.8939278	Female	Blubber	62				230	cm	"Body length"	Immature																																2017/5/12	2017/5/12
PRA000036	SAA002146	ST004	103596	es-BANK	EW04684	M32808	"Peponocephala electra"	"Melon-headed whale"	2002	2	25					Asia	Japan	"Hasaki, Ibaraki"	35.73184444	35.82913333	140.7697722	140.8939278	Female	Blubber	60				229	cm	"Body length"	Mature	"32.5 y.o."																															2017/5/12	2017/5/12
PRA000036	SAA002147	ST004	103596	es-BANK	EW04668	M32783	"Peponocephala electra"	"Melon-headed whale"	2002	2	25					Asia	Japan	"Hasaki, Ibaraki"	35.73184444	35.82913333	140.7697722	140.8939278	Female	Blubber	66				228	cm	"Body length"	Mature	"21.5 y.o."																														Pregnant	2017/5/12	2017/5/12
PRA000036	SAA002148	ST004	103596	es-BANK	EW00136	M32811	"Peponocephala electra"	"Melon-headed whale"	2002	2	25					Asia	Japan	"Hasaki, Ibaraki"	35.73184444	35.82913333	140.7697722	140.8939278	Female	Blubber	63				228	cm	"Body length"	Immature																																2017/5/12	2017/5/12
PRA000036	SAA002149	ST004	103596	es-BANK	EW04673	M32791	"Peponocephala electra"	"Melon-headed whale"	2002	2	25					Asia	Japan	"Hasaki, Ibaraki"	35.73184444	35.82913333	140.7697722	140.8939278	Female	Blubber	24				226	cm	"Body length"	Immature	"6.5 y.o."																															2017/5/12	2017/5/12
PRA000036	SAA002150	ST004	103596	es-BANK	EW00108	020225-32	"Peponocephala electra"	"Melon-headed whale"	2002	2	25					Asia	Japan	"Hasaki, Ibaraki"	35.73184444	35.82913333	140.7697722	140.8939278	Female	Blubber	65				223	cm	"Body length"	Mature																																2017/5/12	2017/5/12
PRA000036	SAA002151	ST004	103596	es-BANK	EW04678	M32801	"Peponocephala electra"	"Melon-headed whale"	2002	2	25					Asia	Japan	"Hasaki, Ibaraki"	35.73184444	35.82913333	140.7697722	140.8939278	Female	Blubber	63				222	cm	"Body length"	Mature	"25.5 y.o."																															2017/5/12	2017/5/12
PRA000036	SAA002152	ST004	103596	es-BANK	EW04679	M32802	"Peponocephala electra"	"Melon-headed whale"	2002	2	25					Asia	Japan	"Hasaki, Ibaraki"	35.73184444	35.82913333	140.7697722	140.8939278	Female	Blubber	80				210	cm	"Body length"	Immature	"1.5 y.o."																															2017/5/12	2017/5/12
PRA000036	SAA002153	ST004	103596	es-BANK	EW04671	M32789	"Peponocephala electra"	"Melon-headed whale"	2002	2	25					Asia	Japan	"Hasaki, Ibaraki"	35.73184444	35.82913333	140.7697722	140.8939278	Female	Blubber	73				208	cm	"Body length"	Immature	"1.5 y.o."																															2017/5/12	2017/5/12
PRA000036	SAA002154	ST004	103596	es-BANK	EW04680	M32803	"Peponocephala electra"	"Melon-headed whale"	2002	2	25					Asia	Japan	"Hasaki, Ibaraki"	35.73184444	35.82913333	140.7697722	140.8939278	Female	Blubber	49				201	cm	"Body length"	Immature	"2 y.o."																															2017/5/12	2017/5/12
PRA000036	SAA002155	ST004	103596	es-BANK	EW04764	M34076	"Peponocephala electra"	"Melon-headed whale"	2006	1	23					Asia	Japan	"Asahi, Chiba"	35.70111111		140.7113889		Male	Blubber	50		229.05	kg	255.6	cm	"Body length"	Mature																																2017/05/12	2017/05/12
PRA000036	SAA002156	ST004	103596	es-BANK	EW04762	M34077	"Peponocephala electra"	"Melon-headed whale"	2006	1	23					Asia	Japan	"Asahi, Chiba"	35.70111111		140.7113889		Male	Blubber	32		137.5	kg	234	cm	"Body length"	Mature																																2017/5/12	2017/5/12
PRA000036	SAA002157	ST004	103596	es-BANK	EW04766	M34072	"Peponocephala electra"	"Melon-headed whale"	2006	1	23					Asia	Japan	"Asahi, Chiba"	35.70111111		140.7113889		Male	Blubber	47		224.05	kg	249	cm	"Body length"	Mature																																2017/5/12	2017/5/12
PRA000036	SAA002158	ST004	103596	es-BANK	EW04772	060301-6	"Peponocephala electra"	"Melon-headed whale"	2006	2	28					Asia	Japan	"Torami Coast, Torami, Ichinomiya, Chiba"	35.33	35.35972222	140.3919417	140.3979167	Male	Blubber	45				239	cm	"Body length"	Mature																															M34090	2017/05/12	2020/12/25
PRA000036	SAA002159	ST004	103596	es-BANK	EW04779	060301-1	"Peponocephala electra"	"Melon-headed whale"	2006	2	28					Asia	Japan	"Torami Coast, Torami, Ichinomiya, Chiba"	35.33	35.35972222	140.3919417	140.3979167	Male	Blubber	81				260	cm	"Body length"	Mature																															M34085	2017/05/12	2020/12/25
PRA000043	SAA002428	ST009	6550	es-BANK	EF06329	Akita	"Mytilus edulis"	"Blue mussel"	2005							Asia	Japan	Akita	40.15555556	40.20944444	139.9233333	139.9822222		"Whole soft tissue"	0.59				"18 - 74"	mm	"Shell length"																																"n=9 Pooled; Industrial area"	2017/9/29	2017/9/29
PRA000043	SAA002429	ST009	6550			"Ehime A"	"Mytilus edulis"	"Blue mussel"	2008							Asia	Japan	"Ehime "	32.88472222	34.30166667	132.0125	133.6930556		"Whole soft tissue"	0.41				"29 - 63"	mm	"Shell length"																																"n=149 Pooled; Port, industrial area"	2017/9/29	2017/9/29
PRA000043	SAA002430	ST009	6550			"Ehime B"	"Mytilus edulis"	"Blue mussel"	2008							Asia	Japan	"Ehime "	32.88472222	34.30166667	132.0125	133.6930556		"Whole soft tissue"	0.24				"43 - 83"	mm	"Shell length"																																"n=45 Pooled; Port"	2017/9/29	2017/9/29
PRA000043	SAA002431	ST009	6550			"Ehime C"	"Mytilus edulis"	"Blue mussel"	2008							Asia	Japan	"Ehime "	32.88472222	34.30166667	132.0125	133.6930556		"Whole soft tissue"	1.1				"30 - 53"	mm	"Shell length"																																"n=48 Pooled; Port, industrial area"	2017/9/29	2017/9/29
PRA000043	SAA002432	ST009	6550			"Ehime D"	"Mytilus edulis"	"Blue mussel"	2008							Asia	Japan	"Ehime "	32.88472222	34.30166667	132.0125	133.6930556		"Whole soft tissue"	1.4				"24 - 63"	mm	"Shell length"																																"n=32 Pooled; Industrial area"	2017/9/29	2017/9/29
PRA000043	SAA002433	ST009	6550			"Ehime E"	"Mytilus edulis"	"Blue mussel"	2008							Asia	Japan	"Ehime "	32.88472222	34.30166667	132.0125	133.6930556		"Whole soft tissue"	0.67				"35 - 75"	mm	"Shell length"																																"n=43 Pooled; Industrial area"	2017/9/29	2017/9/29
PRA000043	SAA002434	ST009	73031			"Ehime F"	"Perna viridis"	"Asian green mussel"	2008							Asia	Japan	"Ehime "	32.88472222	34.30166667	132.0125	133.6930556		"Whole soft tissue"	1.5				"52 - 117"	mm	"Shell length"																																"n=50 Pooled; Fishing harbor"	2017/9/29	2017/9/29
PRA000043	SAA002437	ST009	6550	es-BANK	EF06325	Iwate	"Mytilus edulis"	"Blue mussel"	2005	11	9					Asia	Japan	Iwate	39.62277778	39.64194444	141.9725	141.9886111		"Whole soft tissue"	0.98				"25 - 50"	mm	"Shell length"																																"n=17 Pooled; Port"	2017/9/29	2017/9/29
PRA000043	SAA002438	ST009	6550			Kumamoto	"Mytilus edulis"	"Blue mussel"	2008							Asia	Japan	Kumamoto	32.09472222	33.19527778	129.9402778	131.3294444		"Whole soft tissue"	1.2				"30 - 79"	mm	"Shell length"																																"n=37 Pooled; Harbor"	2017/9/29	2017/9/29
PRA000043	SAA002441	ST009	6550			"Osaka A"	"Mytilus edulis"	"Blue mussel"	2008							Asia	Japan	Osaka	34.27194444	35.05138889	135.0919444	135.7466667		"Whole soft tissue"	0.51				"37 - 65"	mm	"Shell length"																																"n=43 Pooled; Port, indusrial area"	2017/9/29	2017/9/29
PRA000043	SAA002442	ST009	6550			"Osaka B"	"Mytilus edulis"	"Blue mussel"	2008							Asia	Japan	Osaka	34.27194444	35.05138889	135.0919444	135.7466667		"Whole soft tissue"	0.41				"54 - 78"	mm	"Shell length"																																"n=25 Pooled; Port, indusrial area"	2017/9/29	2017/9/29
PRA000043	SAA002443	ST009	6550			"Osaka C"	"Mytilus edulis"	"Blue mussel"	2008							Asia	Japan	Osaka	34.27194444	35.05138889	135.0919444	135.7466667		"Whole soft tissue"	0.75				"18 - 23"	mm	"Shell length"																																"n=95 Pooled; Port, indusrial area"	2017/9/29	2017/9/29
PRA000043	SAA002444	ST009	6550			"Osaka D"	"Mytilus edulis"	"Blue mussel"	2008							Asia	Japan	Osaka	34.27194444	35.05138889	135.0919444	135.7466667		"Whole soft tissue"	0.51				"50 - 89"	mm	"Shell length"																																"n=38 Pooled; Industrial area"	2017/9/29	2017/9/29
PRA000043	SAA002445	ST009	6550			"Syodo island"	"Mytilus edulis"	"Blue mussel"	2008							Asia	Japan	"Syodo island"	34.05027778	34.56416667	134.0358333	134.3663889		"Whole soft tissue"	0.64				"55 - 84"	mm	"Shell length"																																"n=27 Pooled; Port"	2017/9/29	2017/9/29
PRA000043	SAA002446	ST009	6550	es-BANK	EF09157	Tokyo	"Mytilus edulis"	"Blue mussel"	2007	9	8					Asia	Japan	Tokyo	35.535142	35.578546	139.770194	139.825338		"Whole soft tissue"	0.96																																						"Pooled; Small town"	2017/9/29	2017/9/29
PRA000111	SAA007595	ST004	103596	es-BANK	EW00086	820106-13	"Peponocephala electra"	"Melon-headed whale"	1982	1						Asia	Japan	"Aoshima, Miyazaki"	31.45	32.73333333	131.9163889	132.5502778	Male	Blubber	58		144.2	kg	236	cm	"Body length"	Immature	"12.5 y.o."																														"This sample is out of the same speciman as SAA002113."	2021/1/4	2021/1/4
PRA000111	SAA007596	ST004	103596	es-BANK	EW00089	820106-16	"Peponocephala electra"	"Melon-headed whale"	1982	1						Asia	Japan	"Aoshima, Miyazaki"	31.45	32.73333333	131.9163889	132.5502778	Male	Blubber	58		211.7	kg	258	cm	"Body length"	Mature																															"This sample is out of the same speciman as SAA002109."	2021/1/4	2021/1/4
PRA000111	SAA007597	ST004	103596	es-BANK	EW00090	820106-17	"Peponocephala electra"	"Melon-headed whale"	1982	1						Asia	Japan	"Aoshima, Miyazaki"	31.45	32.73333333	131.9163889	132.5502778	Male	Blubber	69		198.4	kg	251	cm	"Body length"	Mature	"37.5 y.o."																														"This sample is out of the same speciman as SAA002110."	2021/1/4	2021/1/4
PRA000111	SAA007598	ST004	103596	es-BANK	EW00091	820106-18	"Peponocephala electra"	"Melon-headed whale"	1982	1						Asia	Japan	"Aoshima, Miyazaki"	31.45	32.73333333	131.9163889	132.5502778	Male	Blubber	62		175.6	kg	247.5	cm	"Body length"	Mature	"24.5 y.o."																														"This sample is out of the same speciman as SAA002111."	2021/1/4	2021/1/4
PRA000111	SAA007599	ST004	103596	es-BANK	EW00093	820106-20	"Peponocephala electra"	"Melon-headed whale"	1982	1						Asia	Japan	"Aoshima, Miyazaki"	31.45	32.73333333	131.9163889	132.5502778	Male	Blubber	63		196.5	kg	247	cm	"Body length"	Mature	"41.5 y.o."																														"This sample is out of the same speciman as SAA002112."	2021/1/4	2021/1/4
PRA000111	SAA007600	ST004	103596	es-BANK	EW00113	M32623	"Peponocephala electra"	"Melon-headed whale"	2001	2	12					Asia	Japan	"Hasaki, Ibaraki"	35.73184444	35.82913333	140.7697722	140.8939278	Male	Blubber	70				270	cm	"Body length"	Mature																															"This sample is out of the same speciman as SAA002119."	2021/1/4	2021/1/4
PRA000111	SAA007601	ST004	103596	es-BANK	EW00121	M32632	"Peponocephala electra"	"Melon-headed whale"	2001	2	14					Asia	Japan	"Hasaki, Ibaraki"	35.73184444	35.82913333	140.7697722	140.8939278	Male	Blubber	67				249	cm	"Body length"	Mature																															"This sample is out of the same speciman as SAA002123."	2021/1/4	2021/1/4
PRA000111	SAA007602	ST004	103596	es-BANK	EW00124	M32654	"Peponocephala electra"	"Melon-headed whale"	2001	3	12					Asia	Japan	"Tanegashima, Kagoshima"	30.28055556	30.89444444	130.8252778	131.2708333	Male	Blubber	99				245.5	cm	"Body length"	Mature																															"This sample is out of the same speciman as SAA002124."	2021/1/4	2021/1/4
PRA000111	SAA007603	ST004	103596	es-BANK	EW00125	M32655	"Peponocephala electra"	"Melon-headed whale"	2001	3	12					Asia	Japan	"Tanegashima, Kagoshima"	30.28055556	30.89444444	130.8252778	131.2708333	Male	Blubber	85				253	cm	"Body length"	Mature																															"This sample is out of the same speciman as SAA002122."	2021/1/4	2021/1/4
PRA000111	SAA007604	ST004	103596	es-BANK	EW00127	M32677	"Peponocephala electra"	"Melon-headed whale"	2001	3	12					Asia	Japan	"Tanegashima, Kagoshima"	30.28055556	30.89444444	130.8252778	131.2708333	Male	Blubber	83				261	cm	"Body length"	Mature																															"This sample is out of the same speciman as SAA002120."	2021/1/4	2021/1/4
PRA000111	SAA007605	ST004	103596	es-BANK	EW00134	M32774	"Peponocephala electra"	"Melon-headed whale"	2002	2	25					Asia	Japan	"Hasaki, Ibaraki"	35.73184444	35.82913333	140.7697722	140.8939278	Male	Blubber	44				243	cm	"Body length"	Mature	"15.5 y.o."																														"This sample is out of the same speciman as SAA002125."	2021/1/4	2021/1/4
PRA000111	SAA007606	ST004	103596	es-BANK	EW04669	M32785	"Peponocephala electra"	"Melon-headed whale"	2002	2	25					Asia	Japan	"Hasaki, Ibaraki"	35.73184444	35.82913333	140.7697722	140.8939278	Male	Blubber	69				243	cm	"Body length"	Mature	"16.5 y.o."																														"This sample is out of the same speciman as SAA002126."	2021/1/4	2021/1/4
PRA000111	SAA007607	ST004	103596	es-BANK	EW04676	M32798	"Peponocephala electra"	"Melon-headed whale"	2002	2	25					Asia	Japan	"Hasaki, Ibaraki"	35.73184444	35.82913333	140.7697722	140.8939278	Male	Blubber	43				234	cm	"Body length"	Immature	"10.5 y.o."																														"This sample is out of the same speciman as SAA002127."	2021/1/4	2021/1/4
PRA000111	SAA007608	ST004	103596	es-BANK	EW04690	M32818	"Peponocephala electra"	"Melon-headed whale"	2002	2	25					Asia	Japan	"Hasaki, Ibaraki"	35.73184444	35.82913333	140.7697722	140.8939278	Male	Blubber	40				255	cm	"Body length"	Immature	"11.5 y.o."																														"This sample is out of the same speciman as SAA002121."	2021/1/4	2021/1/4
PRA000111	SAA007609	ST004	103596	es-BANK	EW04766	M34072	"Peponocephala electra"	"Melon-headed whale"	2006	1	23					Asia	Japan	"Asahi, Chiba"	35.70111111		140.7113889		Male	Blubber	66		224.05	kg	249	cm	"Body length"	Mature																															"This sample is out of the same speciman as SAA002157."	2021/1/4	2021/1/4
PRA000111	SAA007610	ST004	103596	es-BANK	EW04764	M34076	"Peponocephala electra"	"Melon-headed whale"	2006	1	23					Asia	Japan	"Asahi, Chiba"	35.70111111		140.7113889		Male	Blubber	49		229.05	kg	255.6	cm	"Body length"	Mature																															"This sample is out of the same speciman as SAA002155."	2021/1/4	2021/1/4
PRA000111	SAA007611	ST004	103596	es-BANK	EW04762	M34077	"Peponocephala electra"	"Melon-headed whale"	2006	1	23					Asia	Japan	"Asahi, Chiba"	35.70111111		140.7113889		Male	Blubber	51		137.5	kg	234	cm	"Body length"	Mature																															"This sample is out of the same speciman as SAA002156."	2021/1/4	2021/1/4
PRA000111	SAA007612	ST004	103596	es-BANK	EW04779	M34085	"Peponocephala electra"	"Melon-headed whale"	2006	2	28					Asia	Japan	"Torami coast, Torami, Ichinomiya, Chiba"	35.33	35.35972222	140.3919417	140.3979167	Male	Blubber	28				260	cm	"Body length"	Mature																															"This sample is out of the same speciman as SAA002159."	2021/1/4	2021/1/4
PRA000111	SAA007613	ST004	103596	es-BANK	EW04772	M34090	"Peponocephala electra"	"Melon-headed whale"	2006	2	28					Asia	Japan	"Torami coast, Torami, Ichinomiya, Chiba"	35.33	35.35972222	140.3919417	140.3979167	Male	Blubber	35				239	cm	"Body length"	Mature																															"This sample is out of the same speciman as SAA002158."	2021/1/4	2021/1/4
PRA000111	SAA007614	ST004	103596	es-BANK	EW04925	M34095	"Peponocephala electra"	"Melon-headed whale"	2006	2	28					Asia	Japan	"Torami coast, Torami, Ichinomiya, Chiba"	35.33	35.35972222	140.3919417	140.3979167	Male	Blubber	45				238	cm	"Body length"	Mature																																2021/1/4	2021/1/4
PRA000111	SAA007615	ST004	103596	es-BANK	EW04926	M34099	"Peponocephala electra"	"Melon-headed whale"	2006	2	28					Asia	Japan	"Torami coast, Torami, Ichinomiya, Chiba"	35.33	35.35972222	140.3919417	140.3979167	Male	Blubber	64				243	cm	"Body length"	Mature																																2021/1/4	2021/1/4
PRA000111	SAA007616	ST004	103596	es-BANK	EW05312	010104-10	"Peponocephala electra"	"Melon-headed whale"	2010	3	10					Asia	Japan	"Yakutsu Nagahama coast, Sakai, Nakatane town, Kumage-gun, Kagoshima"	30.49722222		130.8997222		Male	Blubber	62				237	cm	"Body length"																																	2021/1/4	2021/1/4
PRA000111	SAA007617	ST004	103596	es-BANK	EW05313	010104-11	"Peponocephala electra"	"Melon-headed whale"	2010	3	10					Asia	Japan	"Yakutsu Nagahama coast, Sakai, Nakatane town, Kumage-gun, Kagoshima"	30.49722222		130.8997222		Male	Blubber	66				250	cm	"Body length"																																	2021/1/4	2021/1/4
PRA000111	SAA007618	ST004	103596	es-BANK	EW05314	010104-33	"Peponocephala electra"	"Melon-headed whale"	2010	3	10					Asia	Japan	"Yakutsu Nagahama coast, Sakai, Nakatane town, Kumage-gun, Kagoshima"	30.49722222		130.8997222		Male	Blubber	79				247	cm	"Body length"																																	2021/1/4	2021/1/4
PRA000111	SAA007619	ST004	103596	es-BANK	EW05195	110306-01	"Peponocephala electra"	"Melon-headed whale"	2011	3	6					Asia	Japan	"Oritsu coast, Kashima city, Ibaraki"	35.98201389		140.6644722		Male	Blubber	41				262	cm	"Body length"	Mature																																2021/1/4	2021/1/4
PRA000111	SAA007620	ST004	103596	es-BANK	EW05201	110306-07	"Peponocephala electra"	"Melon-headed whale"	2011	3	6					Asia	Japan	"Oritsu coast, Kashima city, Ibaraki"	35.98201389		140.6644722		Male	Blubber	41				267.5	cm	"Body length"	Mature																																2021/1/4	2021/1/4
PRA000111	SAA007621	ST004	103596	es-BANK	EW05202	110306-08	"Peponocephala electra"	"Melon-headed whale"	2011	3	6					Asia	Japan	"Oritsu coast, Kashima city, Ibaraki"	35.98201389		140.6644722		Male	Blubber	45				256.3	cm	"Body length"	Mature																																2021/1/4	2021/1/4
PRA000111	SAA007622	ST004	103596	es-BANK	EW05179	110306-17	"Peponocephala electra"	"Melon-headed whale"	2011	3	6					Asia	Japan	"Oritsu coast, Kashima city, Ibaraki"	35.98201389		140.6644722		Male	Blubber	61		232.4	kg	259.7	cm	"Body length"	Mature																																2021/1/4	2021/1/4
PRA000111	SAA007623	ST004	103596	es-BANK	EW05183	110306-21	"Peponocephala electra"	"Melon-headed whale"	2011	3	6					Asia	Japan	"Oritsu coast, Kashima city, Ibaraki"	35.98201389		140.6644722		Male	Blubber	53		238	kg	261.8	cm	"Body length"	Mature																																2021/1/4	2021/1/4
PRA000111	SAA007624	ST004	103596	es-BANK	EW05189	110306-27	"Peponocephala electra"	"Melon-headed whale"	2011	3	6					Asia	Japan	"Oritsu coast, Kashima city, Ibaraki"	35.98201389		140.6644722		Male	Blubber	56		249.8	kg	270	cm	"Body length"	Mature																																2021/1/4	2021/1/4
PRA000111	SAA007625	ST004	103596	es-BANK	EW05184	110306-22	"Peponocephala electra"	"Melon-headed whale"	2011	3	6					Asia	Japan	"Oritsu coast, Kashima city, Ibaraki"	35.98201389		140.6644722		Male	Blubber	73		178	kg	263	cm	"Body length"	Mature																																2021/1/4	2021/1/4
PRA000111	SAA007626	ST004	103596	es-BANK	EW05714	Hokota-02	"Peponocephala electra"	"Melon-headed whale"	2015	4	11					Asia	Japan	"Kyochigma coast, Kamizawa, Hokota city, Ibaraki"	36.095289	36.098629	140.603402	140.605157	Male	Blubber	53				254.7	cm	"Body length"																																	2021/1/4	2021/1/4
PRA000111	SAA007627	ST004	103596	es-BANK	EW05717	Hokota-05	"Peponocephala electra"	"Melon-headed whale"	2015	4	11					Asia	Japan	"Kyochigma coast, Kamizawa, Hokota city, Ibaraki"	36.095289	36.098629	140.603402	140.605157	Male	Blubber	52				244	cm	"Body length"																																	2021/1/4	2021/1/4
PRA000111	SAA007628	ST004	103596	es-BANK	EW05725	Hokota-15	"Peponocephala electra"	"Melon-headed whale"	2015	4	11					Asia	Japan	"Kyochigma coast, Kamizawa, Hokota city, Ibaraki"	36.095289	36.098629	140.603402	140.605157	Male	Blubber	48		195.4	kg	255.3	cm	"Body length"																																	2021/1/4	2021/1/4
PRA000111	SAA007629	ST004	103596	es-BANK	EW05726	Hokota-16	"Peponocephala electra"	"Melon-headed whale"	2015	4	11					Asia	Japan	"Kyochigma coast, Kamizawa, Hokota city, Ibaraki"	36.095289	36.098629	140.603402	140.605157	Male	Blubber	49				252	cm	"Body length"																																	2021/1/4	2021/1/4
PRA000111	SAA007630	ST004	103596	es-BANK	EW05727	Hokota-17	"Peponocephala electra"	"Melon-headed whale"	2015	4	11					Asia	Japan	"Kyochigma coast, Kamizawa, Hokota city, Ibaraki"	36.095289	36.098629	140.603402	140.605157	Male	Blubber	62				253	cm	"Body length"																																	2021/1/4	2021/1/4
PRA000111	SAA007631	ST004	103596	es-BANK	EW05736	Hokota-26	"Peponocephala electra"	"Melon-headed whale"	2015	4	11					Asia	Japan	"Kyochigma coast, Kamizawa, Hokota city, Ibaraki"	36.095289	36.098629	140.603402	140.605157	Male	Blubber	50				255	cm	"Body length"																																	2021/1/4	2021/1/4
PRA000111	SAA007632	ST004	103596	es-BANK	EW05741	Hokota-31	"Peponocephala electra"	"Melon-headed whale"	2015	4	11					Asia	Japan	"Kyochigma coast, Kamizawa, Hokota city, Ibaraki"	36.095289	36.098629	140.603402	140.605157	Male	Blubber	53		184.5	kg	252.5	cm	"Body length"																																	2021/1/4	2021/1/4
PRA000127	SAA009950	ST009	29158			HR-1M	"Mytilus galloprovincialis"	"Blue mussel"	2017	11	7					Asia	Japan	"Otake city, Horoshima"	34.24083333		132.2330556			"Whole soft tissues"	0.88																																							2025/02/14	2025/02/14
PRA000127	SAA009951	ST009	29158			HR-2M	"Mytilus galloprovincialis"	"Blue mussel"	2017	11	7					Asia	Japan	"Hatsukaichi city, Horoshima"	34.30638889		132.32			"Whole soft tissues"	0.84																																							2025/02/14	2025/02/14
PRA000127	SAA009952	ST009	29158			HR-3M	"Mytilus galloprovincialis"	"Blue mussel"	2017	11	7					Asia	Japan	"Hatsukaichi city, Horoshima"	34.3575		132.3386111			"Whole soft tissues"	0.64																																							2025/02/14	2025/02/14
PRA000127	SAA009953	ST009	29158			HR-4M	"Mytilus galloprovincialis"	"Blue mussel"	2017	11	7					Asia	Japan	"Etajima city, Horoshima"	34.26666667		132.4088889			"Whole soft tissues"	0.77																																							2025/02/14	2025/02/14
PRA000127	SAA009954	ST009	29158			HR-5M	"Mytilus galloprovincialis"	"Blue mussel"	2017	11	7					Asia	Japan	"Hiroshima city, Horoshima"	34.34305556		132.465			"Whole soft tissues"	1.1																																							2025/02/14	2025/02/14
PRA000127	SAA009955	ST009	29158			EH-1M	"Mytilus galloprovincialis"	"Blue mussel"	2017	10	30					Asia	Japan	"Iyo City, Ehime"	33.75		132.6697222			"Whole soft tissues"	1.6																																							2025/02/14	2025/02/14
PRA000127	SAA009956	ST009	121615			EH-1O	"Crassostrea nippona"	Oyster	2017	10	30					Asia	Japan	"Iyo City, Ehime"	33.75		132.6697222			"Whole soft tissues"	1.6																																							2025/02/14	2025/02/14
PRA000127	SAA009957	ST009	29158			EH-2M	"Mytilus galloprovincialis"	"Blue mussel"	2017	11	8					Asia	Japan	"Matsuyama City, Ehime"	33.8525		132.7077778			"Whole soft tissues"	1.2																																							2025/02/14	2025/02/14
PRA000127	SAA009958	ST009	29158			EH-3M	"Mytilus galloprovincialis"	"Blue mussel"	2017	11	8					Asia	Japan	"Matsuyama City, Ehime"	33.89111111		132.7252778			"Whole soft tissues"	0.66																																							2025/02/14	2025/02/14
PRA000127	SAA009959	ST009	42192			EH-4M	"Mytilus coruscus"	Mussel	2017	11	8					Asia	Japan	"Imabari City, Ehime"	34.09277778		133.0197222			"Whole soft tissues"	0.68																																							2025/02/14	2025/02/14
PRA000127	SAA009960	ST009	42192			EH-5M	"Mytilus coruscus"	Mussel	2017	11	8					Asia	Japan	"Niihama City, Ehime"	33.97277778		133.2977778			"Whole soft tissues"	2.7																																							2025/02/14	2025/02/14
PRA000127	SAA009961	ST009	42192			EH-6M	"Mytilus coruscus"	Mussel	2017	11	8					Asia	Japan	"Shikokuchuo City, Ehime"	34.02444444		133.5805556			"Whole soft tissues"	2.7																																							2025/02/14	2025/02/14
PRA000127	SAA009962	ST009	121615			OK-1O	"Crassostrea nippona"	Oyster	2017	11	30					Asia	Japan	"Kurashiki City, Okayama"	34.52777778		133.6561111			"Whole soft tissues"	1.9																																							2025/02/14	2025/02/14
PRA000127	SAA009963	ST009	121615			OK-2O	"Crassostrea nippona"	Oyster	2017	11	30					Asia	Japan	"Kurashiki City, Okayama"	34.52138889		133.6938889			"Whole soft tissues"	0.38																																							2025/02/14	2025/02/14
PRA000127	SAA009964	ST009	121615			OK-3O	"Crassostrea nippona"	Oyster	2017	11	30					Asia	Japan	"Okayama City, Okayama"	34.60305556		133.9883333			"Whole soft tissues"	1.7																																							2025/02/14	2025/02/14
PRA000127	SAA009965	ST009	42192			KG-1M	"Mytilus coruscus"	Mussel	2017	11	29					Asia	Japan	"Utazu Town, Kagawa"	34.32833333		133.84			"Whole soft tissues"	1.8																																							2025/02/14	2025/02/14
PRA000127	SAA009966	ST009	42192			KG-2M	"Mytilus coruscus"	Mussel	2017	11	29					Asia	Japan	"Sakaide City, Kagawa"	34.37138889		133.8763889			"Whole soft tissues"	1.3																																							2025/02/14	2025/02/14
PRA000127	SAA009967	ST009	121615			KG-2O	"Crassostrea nippona"	Oyster	2017	11	29					Asia	Japan	"Sakaide City, Kagawa"	34.37138889		133.8763889			"Whole soft tissues"	1.3																																							2025/02/14	2025/02/14
PRA000127	SAA009968	ST009	121615			KG-3O	"Crassostrea nippona"	Oyster	2017	11	29					Asia	Japan	"Takamatsu City, Kagawa"	34.34777778		134.0711111			"Whole soft tissues"	0.87																																							2025/02/14	2025/02/14
PRA000127	SAA009969	ST009	29158			HY-1M	"Mytilus galloprovincialis"	"Blue mussel"	2017	11	29					Asia	Japan	"Himeji City, Hyogo"	34.77916667		134.5997222			"Whole soft tissues"	1.4																																							2025/02/14	2025/02/14
PRA000127	SAA009970	ST009	121615			HY-2O	"Crassostrea nippona"	Oyster	2017	11	29					Asia	Japan	"Himeji City, Hyogo"	34.79888889		134.6608333			"Whole soft tissues"	1.1																																							2025/02/14	2025/02/14
PRA000127	SAA009971	ST009	121615			HY-3O	"Crassostrea nippona"	Oyster	2017	11	29					Asia	Japan	"Minamiawaji City, Hyogo"	34.32027778		134.7183333			"Whole soft tissues"	0.65																																							2025/02/14	2025/02/14
PRA000127	SAA009972	ST009	29158			HY-5M	"Mytilus galloprovincialis"	"Blue mussel"	2017	11	30					Asia	Japan	"Kobe City, Hyogo"	34.62277778		135.0638889			"Whole soft tissues"	1.1																																							2025/02/14	2025/02/14
PRA000127	SAA009973	ST009	121615			HY-5O	"Crassostrea nippona"	Oyster	2017	11	30					Asia	Japan	"Kobe City, Hyogo"	34.62277778		135.0638889			"Whole soft tissues"	0.78																																							2025/02/14	2025/02/14
PRA000127	SAA009974	ST009	121615			HY-6O	"Crassostrea nippona"	Oyster	2017	11	29					Asia	Japan	"Kobe City, Hyogo"	34.67833333		135.1861111			"Whole soft tissues"	0.61																																							2025/02/14	2025/02/14
PRA000127	SAA009975	ST009	121615			OS-1O	"Crassostrea nippona"	Oyster	2017	11	30					Asia	Japan	"Osaka City, Osaka"	34.69305556		135.4075			"Whole soft tissues"	0.82																																							2025/02/14	2025/02/14
PRA000127	SAA009976	ST009	1289581			OS-2M	"Xenostrobus securis"	"Small brown mussel"	2017	11	30					Asia	Japan	"Osaka City, Osaka"	34.665		135.4483333			"Whole soft tissues"	0.55																																							2025/02/14	2025/02/14
PRA000127	SAA009977	ST009	121615			OS-3O	"Crassostrea nippona"	Oyster	2019	7	16					Asia	Japan	"Izumisano City, Osaka"	34.42944444		135.3194444			"Whole soft tissues"	0.99																																							2025/02/14	2025/02/14
PRA000127	SAA009978	ST009	121615			OS-4O	"Crassostrea nippona"	Oyster	2019	7	16					Asia	Japan	"Sennan City, Osaka"	34.32166667		135.1294444			"Whole soft tissues"	1.3																																							2025/02/14	2025/02/14
PRA000127	SAA009979	ST009	121615			OS-5O	"Crassostrea nippona"	Oyster	2019	7	17					Asia	Japan	"Osaka City, Osaka"	34.61361111		135.4441667			"Whole soft tissues"	2.4																																							2025/2/14	2025/2/14
